Observation data for Aiken on 05/26/2019      Previous  Date  Next       Current Mesonet Observations  Soil Data  Daily Summary Page  Observations in Plain Language
KAI1 260500Z 17008KT 20/18 A2997 RMK A01 T01970183  RH  092%=      5-min Rain = 0
KAI1 260501Z 17008KT 20/18 A2998 RMK A01 T01970183  RH  092%=      5-min Rain = 0
KAI1 260502Z 17009KT 20/18 A2998 RMK A01 T01970183  RH  092%=      5-min Rain = 0
KAI1 260503Z 17009KT 20/18 A2998 RMK A01 T01970183  RH  092%=      5-min Rain = 0
KAI1 260504Z 17008KT 20/18 A2998 RMK A01 T01970183  RH  091%=      5-min Rain = 0
KAI1 260505Z 17008KT 20/18 A2998 RMK A01 T01970183  RH  091%=      5-min Rain = 0
KAI1 260506Z 17008KT 20/18 A2998 RMK A01 T01970183  RH  092%=      5-min Rain = 0
KAI1 260507Z 16007KT 20/18 A2998 RMK A01 T01960183  RH  092%=      5-min Rain = 0
KAI1 260508Z 16008KT 20/18 A2998 RMK A01 T01960183  RH  092%=      5-min Rain = 0
KAI1 260509Z 16008KT 20/18 A2998 RMK A01 T01960183  RH  092%=      5-min Rain = 0
KAI1 260510Z 16008KT 20/18 A2998 RMK A01 T01960183  RH  092%=      5-min Rain = 0
KAI1 260511Z 16008KT 20/18 A2998 RMK A01 T01960182  RH  092%=      5-min Rain = 0
KAI1 260512Z 16008KT 20/18 A2998 RMK A01 T01960183  RH  092%=      5-min Rain = 0
KAI1 260513Z 16008KT 20/18 A2998 RMK A01 T01950182  RH  092%=      5-min Rain = 0
KAI1 260514Z 16008KT 20/18 A2998 RMK A01 T01950182  RH  092%=      5-min Rain = 0
KAI1 260515Z 17008KT 20/18 A2998 RMK A01 T01950182  RH  092%=      5-min Rain = 0
KAI1 260516Z 17008KT 19/18 A2998 RMK A01 T01940182  RH  092%=      5-min Rain = 0
KAI1 260517Z 17008KT 19/18 A2998 RMK A01 T01940182  RH  093%=      5-min Rain = 0
KAI1 260518Z 17008KT 19/18 A2998 RMK A01 T01940182  RH  093%=      5-min Rain = 0
KAI1 260519Z 17008KT 20/18 A2998 RMK A01 T01950182  RH  092%=      5-min Rain = 0
KAI1 260520Z 17008KT 20/18 A2998 RMK A01 T01950182  RH  092%=      5-min Rain = 0
KAI1 260521Z 17008KT 19/18 A2998 RMK A01 T01940182  RH  092%=      5-min Rain = 0
KAI1 260522Z 17009KT 19/18 A2998 RMK A01 T01940182  RH  092%=      5-min Rain = 0
KAI1 260523Z 17009KT 19/18 A2998 RMK A01 T01940182  RH  092%=      5-min Rain = 0
KAI1 260524Z 17009KT 19/18 A2998 RMK A01 T01940182  RH  092%=      5-min Rain = 0
KAI1 260525Z 17008KT 20/18 A2998 RMK A01 T01950182  RH  092%=      5-min Rain = 0
KAI1 260526Z 17009KT 19/18 A2998 RMK A01 T01940181  RH  092%=      5-min Rain = 0
KAI1 260527Z 17009KT 19/18 A2998 RMK A01 T01940181  RH  092%=      5-min Rain = 0
KAI1 260528Z 17009KT 19/18 A2998 RMK A01 T01930181  RH  093%=      5-min Rain = 0
KAI1 260529Z 17009KT 19/18 A2998 RMK A01 T01930181  RH  092%=      5-min Rain = 0
KAI1 260530Z 17010KT 19/18 A2998 RMK A01 T01930181  RH  092%=      5-min Rain = 0
KAI1 260531Z 17009KT 19/18 A2998 RMK A01 T01940181  RH  092%=      5-min Rain = 0
KAI1 260532Z 17010KT 19/18 A2998 RMK A01 T01940181  RH  092%=      5-min Rain = 0
KAI1 260533Z 17009KT 20/18 A2997 RMK A01 T01950182  RH  092%=      5-min Rain = 0
KAI1 260534Z 17010KT 20/18 A2997 RMK A01 T01950181  RH  092%=      5-min Rain = 0
KAI1 260535Z 17009KT 20/18 A2997 RMK A01 T01950181  RH  092%=      5-min Rain = 0
KAI1 260536Z 17009KT 20/18 A2997 RMK A01 T01950181  RH  092%=      5-min Rain = 0
KAI1 260537Z 17009KT 19/18 A2997 RMK A01 T01940181  RH  092%=      5-min Rain = 0
KAI1 260538Z 17009KT 19/18 A2997 RMK A01 T01940181  RH  092%=      5-min Rain = 0
KAI1 260539Z 17009KT 19/18 A2997 RMK A01 T01940181  RH  092%=      5-min Rain = 0
KAI1 260540Z 17009KT 19/18 A2997 RMK A01 T01940181  RH  092%=      5-min Rain = 0
KAI1 260541Z 17009KT 19/18 A2997 RMK A01 T01940181  RH  092%=      5-min Rain = 0
KAI1 260542Z 17010KT 19/18 A2997 RMK A01 T01940181  RH  092%=      5-min Rain = 0
KAI1 260543Z 17009KT 19/18 A2998 RMK A01 T01940181  RH  092%=      5-min Rain = 0
KAI1 260544Z 17010KT 19/18 A2998 RMK A01 T01940181  RH  092%=      5-min Rain = 0
KAI1 260545Z 16009KT 20/18 A2998 RMK A01 T01950181  RH  092%=      5-min Rain = 0
KAI1 260546Z 17010KT 19/18 A2998 RMK A01 T01940181  RH  092%=      5-min Rain = 0
KAI1 260547Z 17010KT 19/18 A2998 RMK A01 T01940181  RH  092%=      5-min Rain = 0
KAI1 260548Z 17010KT 19/18 A2998 RMK A01 T01940181  RH  092%=      5-min Rain = 0
KAI1 260549Z 17009KT 19/18 A2998 RMK A01 T01940181  RH  092%=      5-min Rain = 0
KAI1 260550Z 17009KT 19/18 A2998 RMK A01 T01940181  RH  092%=      5-min Rain = 0
KAI1 260551Z 17009KT 19/18 A2998 RMK A01 T01940181  RH  092%=      5-min Rain = 0
KAI1 260552Z 17009KT 19/18 A2998 RMK A01 T01940181  RH  092%=      5-min Rain = 0
KAI1 260553Z 17009KT 19/18 A2998 RMK A01 T01940181  RH  092%=      5-min Rain = 0
KAI1 260554Z 17009KT 19/18 A2998 RMK A01 T01940181  RH  092%=      5-min Rain = 0
KAI1 260555Z 17009KT 19/18 A2998 RMK A01 T01930181  RH  092%=      5-min Rain = 0
KAI1 260556Z 17009KT 19/18 A2998 RMK A01 T01930181  RH  092%=      5-min Rain = 0
KAI1 260557Z 17009KT 19/18 A2998 RMK A01 T01930180  RH  092%=      5-min Rain = 0
KAI1 260558Z 17009KT 19/18 A2998 RMK A01 T01920180  RH  092%=      5-min Rain = 0
KAI1 260559Z 17009KT 19/18 A2998 RMK A01 T01920180  RH  092%=      5-min Rain = 0
KAI1 260600Z 17009KT 19/18 A2998 RMK A01 T01920180  RH  093%=      5-min Rain = 0
KAI1 260601Z 17009KT 19/18 A2998 RMK A01 T01910180  RH  093%=      5-min Rain = 0
KAI1 260602Z 17009KT 19/18 A2998 RMK A01 T01920180  RH  093%=      5-min Rain = 0
KAI1 260603Z 17009KT 19/18 A2998 RMK A01 T01920180  RH  093%=      5-min Rain = 0
KAI1 260604Z 17009KT 19/18 A2998 RMK A01 T01920180  RH  093%=      5-min Rain = 0
KAI1 260605Z 17009KT 19/18 A2998 RMK A01 T01910180  RH  093%=      5-min Rain = 0
KAI1 260606Z 17009KT 19/18 A2998 RMK A01 T01920180  RH  093%=      5-min Rain = 0
KAI1 260607Z 17009KT 19/18 A2998 RMK A01 T01910180  RH  093%=      5-min Rain = 0
KAI1 260608Z 17008KT 19/18 A2998 RMK A01 T01910180  RH  093%=      5-min Rain = 0
KAI1 260609Z 17008KT 19/18 A2998 RMK A01 T01910179  RH  093%=      5-min Rain = 0
KAI1 260610Z 16008KT 19/18 A2998 RMK A01 T01900179  RH  093%=      5-min Rain = 0
KAI1 260611Z 17008KT 19/18 A2998 RMK A01 T01900179  RH  093%=      5-min Rain = 0
KAI1 260612Z 17008KT 19/18 A2998 RMK A01 T01890179  RH  094%=      5-min Rain = 0
KAI1 260613Z 17008KT 19/18 A2998 RMK A01 T01890179  RH  094%=      5-min Rain = 0
KAI1 260614Z 17008KT 19/18 A2998 RMK A01 T01890179  RH  094%=      5-min Rain = 0
KAI1 260615Z 17008KT 19/18 A2998 RMK A01 T01890179  RH  094%=      5-min Rain = 0
KAI1 260616Z 17009KT 19/18 A2998 RMK A01 T01890179  RH  094%=      5-min Rain = 0
KAI1 260617Z 17009KT 19/18 A2998 RMK A01 T01890179  RH  094%=      5-min Rain = 0
KAI1 260618Z 17010KT 19/18 A2998 RMK A01 T01890179  RH  094%=      5-min Rain = 0
KAI1 260619Z 17009KT 19/18 A2998 RMK A01 T01890179  RH  094%=      5-min Rain = 0
KAI1 260620Z 17009KT 19/18 A2998 RMK A01 T01900179  RH  094%=      5-min Rain = 0
KAI1 260621Z 17009KT 19/18 A2998 RMK A01 T01900179  RH  093%=      5-min Rain = 0
KAI1 260622Z 17010KT 19/18 A2998 RMK A01 T01900179  RH  093%=      5-min Rain = 0
KAI1 260623Z 17009KT 19/18 A2998 RMK A01 T01900179  RH  093%=      5-min Rain = 0
KAI1 260624Z 17009KT 19/18 A2998 RMK A01 T01900179  RH  093%=      5-min Rain = 0
KAI1 260625Z 17009KT 19/18 A2998 RMK A01 T01900179  RH  093%=      5-min Rain = 0
KAI1 260626Z 17009KT 19/18 A2998 RMK A01 T01890179  RH  093%=      5-min Rain = 0
KAI1 260627Z 17009KT 19/18 A2998 RMK A01 T01890179  RH  093%=      5-min Rain = 0
KAI1 260628Z 17009KT 19/18 A2998 RMK A01 T01890178  RH  094%=      5-min Rain = 0
KAI1 260629Z 17010KT 19/18 A2998 RMK A01 T01890178  RH  094%=      5-min Rain = 0
KAI1 260630Z 17010KT 19/18 A2998 RMK A01 T01890179  RH  094%=      5-min Rain = 0
KAI1 260631Z 17010KT 19/18 A2998 RMK A01 T01890179  RH  094%=      5-min Rain = 0
KAI1 260632Z 17010KT 19/18 A2998 RMK A01 T01890178  RH  094%=      5-min Rain = 0
KAI1 260633Z 17010KT 19/18 A2998 RMK A01 T01890179  RH  094%=      5-min Rain = 0
KAI1 260634Z 17010KT 19/18 A2998 RMK A01 T01890179  RH  094%=      5-min Rain = 0
KAI1 260635Z 17010KT 19/18 A2998 RMK A01 T01890179  RH  093%=      5-min Rain = 0
KAI1 260636Z 17010KT 19/18 A2998 RMK A01 T01890179  RH  094%=      5-min Rain = 0
KAI1 260637Z 17010KT 19/18 A2998 RMK A01 T01890179  RH  094%=      5-min Rain = 0
KAI1 260638Z 17010KT 19/18 A2998 RMK A01 T01890179  RH  094%=      5-min Rain = 0
KAI1 260639Z 17010KT 19/18 A2998 RMK A01 T01890178  RH  094%=      5-min Rain = 0
KAI1 260640Z 17010KT 19/18 A2998 RMK A01 T01890179  RH  094%=      5-min Rain = 0
KAI1 260641Z 18009KT 19/18 A2998 RMK A01 T01890178  RH  094%=      5-min Rain = 0
KAI1 260642Z 18009KT 19/18 A2998 RMK A01 T01880178  RH  094%=      5-min Rain = 0
KAI1 260643Z 18009KT 19/18 A2998 RMK A01 T01880178  RH  094%=      5-min Rain = 0
KAI1 260644Z 17009KT 19/18 A2998 RMK A01 T01880178  RH  094%=      5-min Rain = 0
KAI1 260645Z 18009KT 19/18 A2998 RMK A01 T01880178  RH  094%=      5-min Rain = 0
KAI1 260646Z 17009KT 19/18 A2998 RMK A01 T01880178  RH  094%=      5-min Rain = 0
KAI1 260647Z 17009KT 19/18 A2998 RMK A01 T01870178  RH  094%=      5-min Rain = 0
KAI1 260648Z 17009KT 19/18 A2998 RMK A01 T01870178  RH  094%=      5-min Rain = 0
KAI1 260649Z 17009KT 19/18 A2998 RMK A01 T01870177  RH  094%=      5-min Rain = 0
KAI1 260650Z 17009KT 19/18 A2998 RMK A01 T01870177  RH  094%=      5-min Rain = 0
KAI1 260651Z 17009KT 19/18 A2998 RMK A01 T01870177  RH  094%=      5-min Rain = 0
KAI1 260652Z 17009KT 19/18 A2998 RMK A01 T01870177  RH  094%=      5-min Rain = 0
KAI1 260653Z 17009KT 19/18 A2998 RMK A01 T01870178  RH  094%=      5-min Rain = 0
KAI1 260654Z 17009KT 19/18 A2998 RMK A01 T01870177  RH  094%=      5-min Rain = 0
KAI1 260655Z 17010KT 19/18 A2998 RMK A01 T01870177  RH  094%=      5-min Rain = 0
KAI1 260656Z 17009KT 19/18 A2998 RMK A01 T01860177  RH  094%=      5-min Rain = 0
KAI1 260657Z 17010KT 19/18 A2998 RMK A01 T01860177  RH  094%=      5-min Rain = 0
KAI1 260658Z 16010KT 19/18 A2998 RMK A01 T01860177  RH  094%=      5-min Rain = 0
KAI1 260659Z 17010KT 19/18 A2998 RMK A01 T01860177  RH  094%=      5-min Rain = 0
KAI1 260700Z 16010KT 19/18 A2998 RMK A01 T01860177  RH  094%=      5-min Rain = 0
KAI1 260701Z 17010KT 19/18 A2998 RMK A01 T01860177  RH  094%=      5-min Rain = 0
KAI1 260702Z 16010KT 19/18 A2998 RMK A01 T01860177  RH  094%=      5-min Rain = 0
KAI1 260703Z 16010KT 19/18 A2998 RMK A01 T01860177  RH  094%=      5-min Rain = 0
KAI1 260704Z 17010KT 19/18 A2998 RMK A01 T01860177  RH  095%=      5-min Rain = 0
KAI1 260705Z 16010KT 19/18 A2998 RMK A01 T01860177  RH  094%=      5-min Rain = 0
KAI1 260706Z 16009KT 19/18 A2998 RMK A01 T01860177  RH  094%=      5-min Rain = 0
KAI1 260707Z 16009KT 19/18 A2998 RMK A01 T01860177  RH  094%=      5-min Rain = 0
KAI1 260708Z 16009KT 19/18 A2998 RMK A01 T01850176  RH  095%=      5-min Rain = 0
KAI1 260709Z 17009KT 19/18 A2998 RMK A01 T01850177  RH  095%=      5-min Rain = 0
KAI1 260710Z 17008KT 19/18 A2998 RMK A01 T01850176  RH  095%=      5-min Rain = 0
KAI1 260711Z 16008KT 19/18 A2998 RMK A01 T01850177  RH  095%=      5-min Rain = 0
KAI1 260712Z 16008KT 18/18 A2998 RMK A01 T01840176  RH  095%=      5-min Rain = 0
KAI1 260713Z 16008KT 18/18 A2998 RMK A01 T01840176  RH  095%=      5-min Rain = 0
KAI1 260714Z 16008KT 18/18 A2998 RMK A01 T01840176  RH  095%=      5-min Rain = 0
KAI1 260715Z 16008KT 18/18 A2998 RMK A01 T01840176  RH  095%=      5-min Rain = 0
KAI1 260716Z 16008KT 18/18 A2998 RMK A01 T01840176  RH  095%=      5-min Rain = 0
KAI1 260717Z 16008KT 18/18 A2998 RMK A01 T01840176  RH  095%=      5-min Rain = 0
KAI1 260718Z 16008KT 18/18 A2998 RMK A01 T01840176  RH  095%=      5-min Rain = 0
KAI1 260719Z 16008KT 18/18 A2998 RMK A01 T01830175  RH  095%=      5-min Rain = 0
KAI1 260720Z 15008KT 18/18 A2998 RMK A01 T01830175  RH  095%=      5-min Rain = 0
KAI1 260721Z 15008KT 18/18 A2998 RMK A01 T01830175  RH  095%=      5-min Rain = 0
KAI1 260722Z 15008KT 18/18 A2998 RMK A01 T01830175  RH  095%=      5-min Rain = 0
KAI1 260723Z 15008KT 18/18 A2998 RMK A01 T01820175  RH  095%=      5-min Rain = 0
KAI1 260724Z 14008KT 18/18 A2998 RMK A01 T01820175  RH  095%=      5-min Rain = 0
KAI1 260725Z 14007KT 18/17 A2999 RMK A01 T01820174  RH  095%=      5-min Rain = 0
KAI1 260726Z 14007KT 18/17 A2999 RMK A01 T01820174  RH  096%=      5-min Rain = 0
KAI1 260727Z 14007KT 18/17 A2999 RMK A01 T01810174  RH  096%=      5-min Rain = 0
KAI1 260728Z 13007KT 18/17 A2999 RMK A01 T01800173  RH  096%=      5-min Rain = 0
KAI1 260729Z 13007KT 18/17 A2999 RMK A01 T01800174  RH  096%=      5-min Rain = 0
KAI1 260730Z 13007KT 18/17 A2999 RMK A01 T01790173  RH  096%=      5-min Rain = 0
KAI1 260731Z 13007KT 18/17 A2999 RMK A01 T01790172  RH  096%=      5-min Rain = 0
KAI1 260732Z 13007KT 18/17 A2999 RMK A01 T01780172  RH  096%=      5-min Rain = 0
KAI1 260733Z 13007KT 18/17 A2999 RMK A01 T01780172  RH  096%=      5-min Rain = 0
KAI1 260734Z 13007KT 18/17 A2999 RMK A01 T01770171  RH  097%=      5-min Rain = 0
KAI1 260735Z 13007KT 18/17 A2999 RMK A01 T01770172  RH  097%=      5-min Rain = 0
KAI1 260736Z 13007KT 18/17 A2999 RMK A01 T01770172  RH  097%=      5-min Rain = 0
KAI1 260737Z 13007KT 18/17 A2999 RMK A01 T01780173  RH  097%=      5-min Rain = 0
KAI1 260738Z 12007KT 18/17 A2999 RMK A01 T01770173  RH  097%=      5-min Rain = 0
KAI1 260739Z 12007KT 18/17 A2999 RMK A01 T01770172  RH  097%=      5-min Rain = 0
KAI1 260740Z 12007KT 18/17 A2999 RMK A01 T01770173  RH  097%=      5-min Rain = 0
KAI1 260741Z 12008KT 18/17 A2999 RMK A01 T01770173  RH  097%=      5-min Rain = 0
KAI1 260742Z 12008KT 18/17 A2999 RMK A01 T01780173  RH  097%=      5-min Rain = 0
KAI1 260743Z 12008KT 18/17 A2999 RMK A01 T01780173  RH  097%=      5-min Rain = 0
KAI1 260744Z 12008KT 18/17 A2999 RMK A01 T01770173  RH  097%=      5-min Rain = 0
KAI1 260745Z 12007KT 18/17 A2999 RMK A01 T01770173  RH  097%=      5-min Rain = 0
KAI1 260746Z 12007KT 18/17 A2999 RMK A01 T01770173  RH  097%=      5-min Rain = 0
KAI1 260747Z 12008KT 18/17 A2999 RMK A01 T01770173  RH  097%=      5-min Rain = 0
KAI1 260748Z 12007KT 18/17 A2999 RMK A01 T01770173  RH  097%=      5-min Rain = 0
KAI1 260749Z 12008KT 18/17 A2999 RMK A01 T01770173  RH  097%=      5-min Rain = 0
KAI1 260750Z 12008KT 18/17 A2999 RMK A01 T01770173  RH  097%=      5-min Rain = 0
KAI1 260751Z 13007KT 18/17 A2999 RMK A01 T01770173  RH  097%=      5-min Rain = 0
KAI1 260752Z 13007KT 18/17 A2999 RMK A01 T01770173  RH  097%=      5-min Rain = 0
KAI1 260753Z 13007KT 18/17 A2999 RMK A01 T01770173  RH  097%=      5-min Rain = 0
KAI1 260754Z 13007KT 18/17 A2999 RMK A01 T01770173  RH  097%=      5-min Rain = 0
KAI1 260755Z 13007KT 18/17 A2999 RMK A01 T01770173  RH  097%=      5-min Rain = 0
KAI1 260756Z 13007KT 18/17 A2999 RMK A01 T01770173  RH  097%=      5-min Rain = 0
KAI1 260757Z 13007KT 18/17 A2999 RMK A01 T01770173  RH  097%=      5-min Rain = 0
KAI1 260758Z 13007KT 18/17 A2999 RMK A01 T01770173  RH  097%=      5-min Rain = 0
KAI1 260759Z 13007KT 18/17 A2999 RMK A01 T01770173  RH  097%=      5-min Rain = 0
KAI1 260800Z 13007KT 18/17 A2999 RMK A01 T01770173  RH  097%=      5-min Rain = 0
KAI1 260801Z 13007KT 18/17 A2999 RMK A01 T01760173  RH  098%=      5-min Rain = 0
KAI1 260802Z 13007KT 18/17 A2999 RMK A01 T01770173  RH  098%=      5-min Rain = 0
KAI1 260803Z 13008KT 18/17 A2999 RMK A01 T01770173  RH  098%=      5-min Rain = 0
KAI1 260804Z 13007KT 18/17 A2999 RMK A01 T01760173  RH  098%=      5-min Rain = 0
KAI1 260805Z 13007KT 18/17 A2999 RMK A01 T01770173  RH  098%=      5-min Rain = 0
KAI1 260806Z 13007KT 18/17 A2999 RMK A01 T01760172  RH  098%=      5-min Rain = 0
KAI1 260807Z 13007KT 18/17 A2999 RMK A01 T01760172  RH  098%=      5-min Rain = 0
KAI1 260808Z 14006KT 18/17 A2999 RMK A01 T01760172  RH  098%=      5-min Rain = 0
KAI1 260809Z 14006KT 18/17 A2999 RMK A01 T01760172  RH  098%=      5-min Rain = 0
KAI1 260810Z 14006KT 18/17 A2999 RMK A01 T01750172  RH  098%=      5-min Rain = 0
KAI1 260811Z 15006KT 18/17 A2999 RMK A01 T01750172  RH  098%=      5-min Rain = 0
KAI1 260812Z 15006KT 18/17 A2999 RMK A01 T01750172  RH  098%=      5-min Rain = 0
KAI1 260813Z 15006KT 18/17 A2999 RMK A01 T01750172  RH  098%=      5-min Rain = 0
KAI1 260814Z 15006KT 18/17 A2999 RMK A01 T01750172  RH  098%=      5-min Rain = 0
KAI1 260815Z 15006KT 18/17 A2999 RMK A01 T01750172  RH  098%=      5-min Rain = 0
KAI1 260816Z 15007KT 18/17 A2999 RMK A01 T01750171  RH  098%=      5-min Rain = 0
KAI1 260817Z 15007KT 18/17 A2999 RMK A01 T01750171  RH  098%=      5-min Rain = 0
KAI1 260818Z 15007KT 18/17 A2999 RMK A01 T01750171  RH  098%=      5-min Rain = 0
KAI1 260819Z 15006KT 18/17 A2999 RMK A01 T01750171  RH  098%=      5-min Rain = 0
KAI1 260820Z 15007KT 17/17 A2999 RMK A01 T01740171  RH  098%=      5-min Rain = 0
KAI1 260821Z 15007KT 17/17 A2999 RMK A01 T01740171  RH  098%=      5-min Rain = 0
KAI1 260822Z 15007KT 17/17 A2999 RMK A01 T01740171  RH  098%=      5-min Rain = 0
KAI1 260823Z 15007KT 17/17 A2999 RMK A01 T01740171  RH  098%=      5-min Rain = 0
KAI1 260824Z 15007KT 17/17 A2999 RMK A01 T01740171  RH  098%=      5-min Rain = 0
KAI1 260825Z 15007KT 17/17 A2999 RMK A01 T01740170  RH  098%=      5-min Rain = 0
KAI1 260826Z 15006KT 17/17 A2999 RMK A01 T01740171  RH  098%=      5-min Rain = 0
KAI1 260827Z 15006KT 17/17 A2999 RMK A01 T01740171  RH  098%=      5-min Rain = 0
KAI1 260828Z 15006KT 17/17 A2999 RMK A01 T01730170  RH  098%=      5-min Rain = 0
KAI1 260829Z 15006KT 17/17 A2999 RMK A01 T01730170  RH  098%=      5-min Rain = 0
KAI1 260830Z 15006KT 17/17 A2999 RMK A01 T01730170  RH  098%=      5-min Rain = 0
KAI1 260831Z 15006KT 17/17 A2999 RMK A01 T01730170  RH  098%=      5-min Rain = 0
KAI1 260832Z 15006KT 17/17 A2999 RMK A01 T01730170  RH  098%=      5-min Rain = 0
KAI1 260833Z 15006KT 17/17 A2999 RMK A01 T01730170  RH  098%=      5-min Rain = 0
KAI1 260834Z 15007KT 17/17 A2999 RMK A01 T01730170  RH  098%=      5-min Rain = 0
KAI1 260835Z 15007KT 17/17 A2999 RMK A01 T01730170  RH  098%=      5-min Rain = 0
KAI1 260836Z 15006KT 17/17 A2999 RMK A01 T01730170  RH  098%=      5-min Rain = 0
KAI1 260837Z 15007KT 17/17 A2999 RMK A01 T01740171  RH  098%=      5-min Rain = 0
KAI1 260838Z 15007KT 17/17 A2999 RMK A01 T01730171  RH  098%=      5-min Rain = 0
KAI1 260839Z 15007KT 17/17 A2999 RMK A01 T01730171  RH  098%=      5-min Rain = 0
KAI1 260840Z 15007KT 17/17 A2999 RMK A01 T01730171  RH  098%=      5-min Rain = 0
KAI1 260841Z 15008KT 17/17 A2999 RMK A01 T01730170  RH  098%=      5-min Rain = 0
KAI1 260842Z 15008KT 17/17 A2999 RMK A01 T01740171  RH  098%=      5-min Rain = 0
KAI1 260843Z 15008KT 17/17 A2999 RMK A01 T01730171  RH  098%=      5-min Rain = 0
KAI1 260844Z 16008KT 17/17 A2999 RMK A01 T01730170  RH  098%=      5-min Rain = 0
KAI1 260845Z 15008KT 17/17 A2999 RMK A01 T01730170  RH  098%=      5-min Rain = 0
KAI1 260846Z 15008KT 17/17 A2999 RMK A01 T01730171  RH  098%=      5-min Rain = 0
KAI1 260847Z 15008KT 17/17 A2999 RMK A01 T01730170  RH  098%=      5-min Rain = 0
KAI1 260848Z 16009KT 17/17 A2999 RMK A01 T01730171  RH  098%=      5-min Rain = 0
KAI1 260849Z 16009KT 17/17 A2999 RMK A01 T01730171  RH  098%=      5-min Rain = 0
KAI1 260850Z 16009KT 17/17 A2999 RMK A01 T01730170  RH  098%=      5-min Rain = 0
KAI1 260851Z 16009KT 17/17 A2998 RMK A01 T01740171  RH  098%=      5-min Rain = 0
KAI1 260852Z 16009KT 17/17 A2998 RMK A01 T01740171  RH  098%=      5-min Rain = 0
KAI1 260853Z 16009KT 17/17 A2998 RMK A01 T01740171  RH  098%=      5-min Rain = 0
KAI1 260854Z 16009KT 18/17 A2998 RMK A01 T01750172  RH  098%=      5-min Rain = 0
KAI1 260855Z 16009KT 18/17 A2998 RMK A01 T01750172  RH  098%=      5-min Rain = 0
KAI1 260856Z 16008KT 18/17 A2998 RMK A01 T01750171  RH  098%=      5-min Rain = 0
KAI1 260857Z 16009KT 18/17 A2998 RMK A01 T01750172  RH  098%=      5-min Rain = 0
KAI1 260858Z 16008KT 18/17 A2998 RMK A01 T01750172  RH  098%=      5-min Rain = 0
KAI1 260859Z 16008KT 18/17 A2998 RMK A01 T01750172  RH  098%=      5-min Rain = 0
KAI1 260900Z 16009KT 18/17 A2998 RMK A01 T01750172  RH  098%=      5-min Rain = 0
KAI1 260901Z 16009KT 18/17 A2998 RMK A01 T01750172  RH  098%=      5-min Rain = 0
KAI1 260902Z 16008KT 18/17 A2998 RMK A01 T01760172  RH  098%=      5-min Rain = 0
KAI1 260903Z 16008KT 18/17 A2998 RMK A01 T01760172  RH  098%=      5-min Rain = 0
KAI1 260904Z 16008KT 18/17 A2998 RMK A01 T01750172  RH  098%=      5-min Rain = 0
KAI1 260905Z 16008KT 18/17 A2998 RMK A01 T01760172  RH  098%=      5-min Rain = 0
KAI1 260906Z 16008KT 18/17 A2998 RMK A01 T01760172  RH  098%=      5-min Rain = 0
KAI1 260907Z 16008KT 18/17 A2998 RMK A01 T01760172  RH  098%=      5-min Rain = 0
KAI1 260908Z 16008KT 18/17 A2998 RMK A01 T01750171  RH  097%=      5-min Rain = 0
KAI1 260909Z 16008KT 18/17 A2998 RMK A01 T01750171  RH  097%=      5-min Rain = 0
KAI1 260910Z 16008KT 18/17 A2998 RMK A01 T01750171  RH  097%=      5-min Rain = 0
KAI1 260911Z 16008KT 18/17 A2998 RMK A01 T01750171  RH  098%=      5-min Rain = 0
KAI1 260912Z 16008KT 17/17 A2998 RMK A01 T01740171  RH  098%=      5-min Rain = 0
KAI1 260913Z 16008KT 18/17 A2998 RMK A01 T01750171  RH  098%=      5-min Rain = 0
KAI1 260914Z 16008KT 18/17 A2998 RMK A01 T01750171  RH  098%=      5-min Rain = 0
KAI1 260915Z 16008KT 17/17 A2998 RMK A01 T01740170  RH  098%=      5-min Rain = 0
KAI1 260916Z 16008KT 17/17 A2999 RMK A01 T01740171  RH  098%=      5-min Rain = 0
KAI1 260917Z 16008KT 17/17 A2999 RMK A01 T01740170  RH  098%=      5-min Rain = 0
KAI1 260918Z 16008KT 17/17 A2999 RMK A01 T01740170  RH  098%=      5-min Rain = 0
KAI1 260919Z 16008KT 17/17 A2999 RMK A01 T01740170  RH  098%=      5-min Rain = 0
KAI1 260920Z 16008KT 17/17 A2999 RMK A01 T01740170  RH  098%=      5-min Rain = 0
KAI1 260921Z 16008KT 17/17 A2999 RMK A01 T01740170  RH  098%=      5-min Rain = 0
KAI1 260922Z 16008KT 17/17 A2999 RMK A01 T01740170  RH  098%=      5-min Rain = 0
KAI1 260923Z 16008KT 17/17 A2999 RMK A01 T01740170  RH  098%=      5-min Rain = 0
KAI1 260924Z 16008KT 17/17 A2999 RMK A01 T01740171  RH  098%=      5-min Rain = 0
KAI1 260925Z 16008KT 17/17 A2999 RMK A01 T01740171  RH  098%=      5-min Rain = 0
KAI1 260926Z 16008KT 17/17 A2999 RMK A01 T01740170  RH  098%=      5-min Rain = 0
KAI1 260927Z 16009KT 17/17 A2999 RMK A01 T01740171  RH  098%=      5-min Rain = 0
KAI1 260928Z 16009KT 18/17 A2998 RMK A01 T01750171  RH  098%=      5-min Rain = 0
KAI1 260929Z 16009KT 18/17 A2998 RMK A01 T01750171  RH  098%=      5-min Rain = 0
KAI1 260930Z 16009KT 18/17 A2998 RMK A01 T01750171  RH  097%=      5-min Rain = 0
KAI1 260931Z 16009KT 17/17 A2998 RMK A01 T01740170  RH  097%=      5-min Rain = 0
KAI1 260932Z 16008KT 18/17 A2998 RMK A01 T01750170  RH  097%=      5-min Rain = 0
KAI1 260933Z 16009KT 18/17 A2998 RMK A01 T01750171  RH  097%=      5-min Rain = 0
KAI1 260934Z 16008KT 18/17 A2998 RMK A01 T01750170  RH  097%=      5-min Rain = 0
KAI1 260935Z 16008KT 18/17 A2998 RMK A01 T01750170  RH  097%=      5-min Rain = 0
KAI1 260936Z 15008KT 18/17 A2998 RMK A01 T01750170  RH  097%=      5-min Rain = 0
KAI1 260937Z 15008KT 18/17 A2998 RMK A01 T01750170  RH  097%=      5-min Rain = 0
KAI1 260938Z 15008KT 18/17 A2998 RMK A01 T01750170  RH  097%=      5-min Rain = 0
KAI1 260939Z 15009KT 17/17 A2998 RMK A01 T01740169  RH  097%=      5-min Rain = 0
KAI1 260940Z 15009KT 17/17 A2998 RMK A01 T01740170  RH  097%=      5-min Rain = 0
KAI1 260941Z 15009KT 17/17 A2998 RMK A01 T01740170  RH  097%=      5-min Rain = 0
KAI1 260942Z 15009KT 17/17 A2998 RMK A01 T01740169  RH  097%=      5-min Rain = 0
KAI1 260943Z 16008KT 17/17 A2998 RMK A01 T01740169  RH  097%=      5-min Rain = 0
KAI1 260944Z 16009KT 17/17 A2998 RMK A01 T01740169  RH  097%=      5-min Rain = 0
KAI1 260945Z 16009KT 17/17 A2998 RMK A01 T01740169  RH  097%=      5-min Rain = 0
KAI1 260946Z 16010KT 17/17 A2998 RMK A01 T01740169  RH  097%=      5-min Rain = 0
KAI1 260947Z 16009KT 17/17 A2998 RMK A01 T01740169  RH  097%=      5-min Rain = 0
KAI1 260948Z 16009KT 17/17 A2998 RMK A01 T01740170  RH  097%=      5-min Rain = 0
KAI1 260949Z 16010KT 17/17 A2998 RMK A01 T01740170  RH  097%=      5-min Rain = 0
KAI1 260950Z 16010KT 17/17 A2998 RMK A01 T01740170  RH  097%=      5-min Rain = 0
KAI1 260951Z 16010KT 17/17 A2998 RMK A01 T01740170  RH  097%=      5-min Rain = 0
KAI1 260952Z 16010KT 17/17 A2998 RMK A01 T01740170  RH  097%=      5-min Rain = 0
KAI1 260953Z 16009KT 17/17 A2998 RMK A01 T01740169  RH  097%=      5-min Rain = 0
KAI1 260954Z 16010KT 17/17 A2998 RMK A01 T01740169  RH  097%=      5-min Rain = 0
KAI1 260955Z 16010KT 17/17 A2999 RMK A01 T01740170  RH  097%=      5-min Rain = 0
KAI1 260956Z 16009KT 17/17 A2999 RMK A01 T01740169  RH  097%=      5-min Rain = 0
KAI1 260957Z 16010KT 17/17 A2999 RMK A01 T01740169  RH  097%=      5-min Rain = 0
KAI1 260958Z 16010KT 17/17 A2999 RMK A01 T01740170  RH  097%=      5-min Rain = 0
KAI1 260959Z 16010KT 17/17 A2999 RMK A01 T01740170  RH  097%=      5-min Rain = 0
KAI1 261000Z 16010KT 17/17 A2999 RMK A01 T01740170  RH  097%=      5-min Rain = 0
KAI1 261001Z 15010KT 17/17 A2999 RMK A01 T01740170  RH  097%=      5-min Rain = 0
KAI1 261002Z 15010KT 17/17 A2999 RMK A01 T01740170  RH  097%=      5-min Rain = 0
KAI1 261003Z 15010KT 17/17 A2999 RMK A01 T01740170  RH  097%=      5-min Rain = 0
KAI1 261004Z 15010KT 17/17 A2999 RMK A01 T01740170  RH  097%=      5-min Rain = 0
KAI1 261005Z 15010KT 17/17 A2999 RMK A01 T01740170  RH  097%=      5-min Rain = 0
KAI1 261006Z 16010KT 17/17 A2999 RMK A01 T01740170  RH  097%=      5-min Rain = 0
KAI1 261007Z 16010KT 17/17 A2999 RMK A01 T01740170  RH  097%=      5-min Rain = 0
KAI1 261008Z 16011KT 17/17 A2999 RMK A01 T01740170  RH  097%=      5-min Rain = 0
KAI1 261009Z 16011KT 17/17 A2999 RMK A01 T01740170  RH  097%=      5-min Rain = 0
KAI1 261010Z 16011KT 18/17 A2999 RMK A01 T01750170  RH  097%=      5-min Rain = 0
KAI1 261011Z 16010KT 18/17 A2999 RMK A01 T01750170  RH  097%=      5-min Rain = 0
KAI1 261012Z 15011KT 18/17 A2999 RMK A01 T01750170  RH  097%=      5-min Rain = 0
KAI1 261013Z 16011KT 18/17 A2999 RMK A01 T01750170  RH  097%=      5-min Rain = 0
KAI1 261014Z 15011KT 18/17 A2999 RMK A01 T01750171  RH  097%=      5-min Rain = 0
KAI1 261015Z 16011KT 18/17 A2999 RMK A01 T01750171  RH  097%=      5-min Rain = 0
KAI1 261016Z 16011KT 18/17 A2999 RMK A01 T01760171  RH  097%=      5-min Rain = 0
KAI1 261017Z 16011KT 18/17 A2999 RMK A01 T01760171  RH  097%=      5-min Rain = 0
KAI1 261018Z 16011KT 18/17 A2999 RMK A01 T01760171  RH  097%=      5-min Rain = 0
KAI1 261019Z 16011KT 18/17 A2999 RMK A01 T01760171  RH  097%=      5-min Rain = 0
KAI1 261020Z 16010KT 18/17 A2999 RMK A01 T01760171  RH  097%=      5-min Rain = 0
KAI1 261021Z 16010KT 18/17 A2999 RMK A01 T01770172  RH  097%=      5-min Rain = 0
KAI1 261022Z 16011KT 18/17 A2999 RMK A01 T01760172  RH  097%=      5-min Rain = 0
KAI1 261023Z 16011KT 18/17 A2999 RMK A01 T01770172  RH  097%=      5-min Rain = 0
KAI1 261024Z 16010KT 18/17 A2999 RMK A01 T01770172  RH  097%=      5-min Rain = 0
KAI1 261025Z 15011KT 18/17 A2999 RMK A01 T01780173  RH  097%=      5-min Rain = 0
KAI1 261026Z 15011KT 18/17 A2999 RMK A01 T01780173  RH  097%=      5-min Rain = 0
KAI1 261027Z 16011KT 18/17 A2999 RMK A01 T01780173  RH  097%=      5-min Rain = 0
KAI1 261028Z 16011KT 18/17 A2999 RMK A01 T01780173  RH  097%=      5-min Rain = 0
KAI1 261029Z 16011KT 18/17 A2999 RMK A01 T01780173  RH  097%=      5-min Rain = 0
KAI1 261030Z 16010KT 18/17 A2999 RMK A01 T01790174  RH  097%=      5-min Rain = 0
KAI1 261031Z 16010KT 18/17 A2999 RMK A01 T01780173  RH  097%=      5-min Rain = 0
KAI1 261032Z 16010KT 18/17 A2999 RMK A01 T01790174  RH  097%=      5-min Rain = 0
KAI1 261033Z 16010KT 18/17 A2999 RMK A01 T01790174  RH  097%=      5-min Rain = 0
KAI1 261034Z 16010KT 18/17 A2999 RMK A01 T01790174  RH  097%=      5-min Rain = 0
KAI1 261035Z 16009KT 18/17 A2999 RMK A01 T01790174  RH  097%=      5-min Rain = 0
KAI1 261036Z 16008KT 18/17 A2999 RMK A01 T01790174  RH  097%=      5-min Rain = 0
KAI1 261037Z 16009KT 18/17 A2999 RMK A01 T01790174  RH  097%=      5-min Rain = 0
KAI1 261038Z 16010KT 18/17 A2999 RMK A01 T01790174  RH  097%=      5-min Rain = 0
KAI1 261039Z 16009KT 18/17 A2999 RMK A01 T01790174  RH  097%=      5-min Rain = 0
KAI1 261040Z 16009KT 18/18 A2999 RMK A01 T01800175  RH  097%=      5-min Rain = 0
KAI1 261041Z 16010KT 18/18 A2999 RMK A01 T01800175  RH  097%=      5-min Rain = 0
KAI1 261042Z 16009KT 18/18 A2999 RMK A01 T01800175  RH  097%=      5-min Rain = 0
KAI1 261043Z 16009KT 18/18 A2999 RMK A01 T01800175  RH  097%=      5-min Rain = 0
KAI1 261044Z 16009KT 18/18 A2999 RMK A01 T01810175  RH  097%=      5-min Rain = 0
KAI1 261045Z 16009KT 18/18 A2999 RMK A01 T01800175  RH  096%=      5-min Rain = 0
KAI1 261046Z 16009KT 18/18 A2999 RMK A01 T01810175  RH  096%=      5-min Rain = 0
KAI1 261047Z 16009KT 18/18 A2999 RMK A01 T01810175  RH  096%=      5-min Rain = 0
KAI1 261048Z 16009KT 18/18 A2999 RMK A01 T01810175  RH  096%=      5-min Rain = 0
KAI1 261049Z 16008KT 18/18 A2999 RMK A01 T01810175  RH  096%=      5-min Rain = 0
KAI1 261050Z 17008KT 18/18 A2999 RMK A01 T01810176  RH  096%=      5-min Rain = 0
KAI1 261051Z 17008KT 18/18 A30 RMK A01 T01810176  RH  096%=      5-min Rain = 0
KAI1 261052Z 17008KT 18/18 A30 RMK A01 T01810176  RH  096%=      5-min Rain = 0
KAI1 261053Z 17009KT 18/18 A30 RMK A01 T01810175  RH  096%=      5-min Rain = 0
KAI1 261054Z 17008KT 18/18 A30 RMK A01 T01810176  RH  096%=      5-min Rain = 0
KAI1 261055Z 17008KT 18/18 A30 RMK A01 T01810176  RH  096%=      5-min Rain = 0
KAI1 261056Z 17008KT 18/18 A30 RMK A01 T01820176  RH  096%=      5-min Rain = 0
KAI1 261057Z 17008KT 18/18 A30 RMK A01 T01820176  RH  096%=      5-min Rain = 0
KAI1 261058Z 17007KT 18/18 A30 RMK A01 T01820176  RH  096%=      5-min Rain = 0
KAI1 261059Z 17008KT 18/18 A30 RMK A01 T01820176  RH  096%=      5-min Rain = 0
KAI1 261100Z 17007KT 18/18 A30 RMK A01 T01820176  RH  096%=      5-min Rain = 0
KAI1 261101Z 17007KT 18/18 A30 RMK A01 T01820176  RH  096%=      5-min Rain = 0
KAI1 261102Z 17007KT 18/18 A30 RMK A01 T01820176  RH  096%=      5-min Rain = 0
KAI1 261103Z 16007KT 18/18 A30 RMK A01 T01820176  RH  096%=      5-min Rain = 0
KAI1 261104Z 17007KT 18/18 A30 RMK A01 T01810176  RH  097%=      5-min Rain = 0
KAI1 261105Z 16007KT 18/18 A30 RMK A01 T01810176  RH  097%=      5-min Rain = 0
KAI1 261106Z 16007KT 18/18 A30 RMK A01 T01810176  RH  097%=      5-min Rain = 0
KAI1 261107Z 16007KT 18/18 A30 RMK A01 T01820176  RH  097%=      5-min Rain = 0
KAI1 261108Z 16007KT 18/18 A30 RMK A01 T01820176  RH  097%=      5-min Rain = 0
KAI1 261109Z 16006KT 18/18 A30 RMK A01 T01810176  RH  097%=      5-min Rain = 0
KAI1 261110Z 16007KT 18/18 A30 RMK A01 T01820176  RH  097%=      5-min Rain = 0
KAI1 261111Z 16006KT 18/18 A30 RMK A01 T01820176  RH  097%=      5-min Rain = 0
KAI1 261112Z 17006KT 18/18 A30 RMK A01 T01820176  RH  097%=      5-min Rain = 0
KAI1 261113Z 16006KT 18/18 A30 RMK A01 T01810176  RH  097%=      5-min Rain = 0
KAI1 261114Z 16006KT 18/18 A30 RMK A01 T01820177  RH  097%=      5-min Rain = 0
KAI1 261115Z 16006KT 18/18 A30 RMK A01 T01810176  RH  097%=      5-min Rain = 0
KAI1 261116Z 16006KT 18/18 A30 RMK A01 T01820177  RH  097%=      5-min Rain = 0
KAI1 261117Z 16006KT 18/18 A30 RMK A01 T01820177  RH  097%=      5-min Rain = 0
KAI1 261118Z 16006KT 18/18 A30 RMK A01 T01820176  RH  097%=      5-min Rain = 0
KAI1 261119Z 16006KT 18/18 A30 RMK A01 T01820177  RH  097%=      5-min Rain = 0
KAI1 261120Z 16006KT 18/18 A3001 RMK A01 T01810177  RH  097%=      5-min Rain = 0
KAI1 261121Z 16006KT 18/18 A30 RMK A01 T01820177  RH  097%=      5-min Rain = 0
KAI1 261122Z 16007KT 18/18 A30 RMK A01 T01810177  RH  097%=      5-min Rain = 0
KAI1 261123Z 16007KT 18/18 A3001 RMK A01 T01810177  RH  097%=      5-min Rain = 0
KAI1 261124Z 16006KT 18/18 A3001 RMK A01 T01820177  RH  097%=      5-min Rain = 0
KAI1 261125Z 16006KT 18/18 A3001 RMK A01 T01820177  RH  097%=      5-min Rain = 0
KAI1 261126Z 16007KT 18/18 A3001 RMK A01 T01820177  RH  097%=      5-min Rain = 0
KAI1 261127Z 16008KT 18/18 A3001 RMK A01 T01820177  RH  097%=      5-min Rain = 0
KAI1 261128Z 16007KT 18/18 A3001 RMK A01 T01820177  RH  097%=      5-min Rain = 0
KAI1 261129Z 16007KT 18/18 A3001 RMK A01 T01820177  RH  097%=      5-min Rain = 0
KAI1 261130Z 16008KT 18/18 A3001 RMK A01 T01820177  RH  097%=      5-min Rain = 0
KAI1 261131Z 16007KT 18/18 A3001 RMK A01 T01830178  RH  097%=      5-min Rain = 0
KAI1 261132Z 16008KT 18/18 A3001 RMK A01 T01830178  RH  097%=      5-min Rain = 0
KAI1 261133Z 16007KT 18/18 A3001 RMK A01 T01830178  RH  097%=      5-min Rain = 0
KAI1 261134Z 16006KT 18/18 A3001 RMK A01 T01830177  RH  097%=      5-min Rain = 0
KAI1 261135Z 16007KT 18/18 A3001 RMK A01 T01830178  RH  097%=      5-min Rain = 0
KAI1 261136Z 16008KT 18/18 A3001 RMK A01 T01830178  RH  097%=      5-min Rain = 0
KAI1 261137Z 16007KT 18/18 A3001 RMK A01 T01830178  RH  097%=      5-min Rain = 0
KAI1 261138Z 16007KT 18/18 A3001 RMK A01 T01830178  RH  097%=      5-min Rain = 0
KAI1 261139Z 16008KT 18/18 A3001 RMK A01 T01830178  RH  097%=      5-min Rain = 0
KAI1 261140Z 16008KT 18/18 A3001 RMK A01 T01830178  RH  097%=      5-min Rain = 0
KAI1 261141Z 16008KT 18/18 A3001 RMK A01 T01830178  RH  097%=      5-min Rain = 0
KAI1 261142Z 16008KT 18/18 A3001 RMK A01 T01830178  RH  097%=      5-min Rain = 0
KAI1 261143Z 16007KT 18/18 A3001 RMK A01 T01830178  RH  097%=      5-min Rain = 0
KAI1 261144Z 16008KT 18/18 A3001 RMK A01 T01830178  RH  097%=      5-min Rain = 0
KAI1 261145Z 16008KT 18/18 A3001 RMK A01 T01830178  RH  097%=      5-min Rain = 0
KAI1 261146Z 16008KT 18/18 A3001 RMK A01 T01830178  RH  097%=      5-min Rain = 0
KAI1 261147Z 16008KT 18/18 A3001 RMK A01 T01830178  RH  097%=      5-min Rain = 0
KAI1 261148Z 16008KT 18/18 A3001 RMK A01 T01830178  RH  097%=      5-min Rain = 0
KAI1 261149Z 15008KT 18/18 A3001 RMK A01 T01840179  RH  097%=      5-min Rain = 0
KAI1 261150Z 16009KT 18/18 A3001 RMK A01 T01830178  RH  097%=      5-min Rain = 0
KAI1 261151Z 16008KT 18/18 A3001 RMK A01 T01830179  RH  097%=      5-min Rain = 0
KAI1 261152Z 16008KT 18/18 A3001 RMK A01 T01840179  RH  097%=      5-min Rain = 0
KAI1 261153Z 16008KT 18/18 A3001 RMK A01 T01840179  RH  097%=      5-min Rain = 0
KAI1 261154Z 16007KT 18/18 A3001 RMK A01 T01840179  RH  097%=      5-min Rain = 0
KAI1 261155Z 16007KT 18/18 A3001 RMK A01 T01840179  RH  097%=      5-min Rain = 0
KAI1 261156Z 16007KT 18/18 A3001 RMK A01 T01840179  RH  097%=      5-min Rain = 0
KAI1 261157Z 15007KT 18/18 A3001 RMK A01 T01840179  RH  097%=      5-min Rain = 0
KAI1 261158Z 16008KT 18/18 A3001 RMK A01 T01840179  RH  097%=      5-min Rain = 0
KAI1 261159Z 16008KT 18/18 A3001 RMK A01 T01840179  RH  097%=      5-min Rain = 0
KAI1 261200Z 15008KT 18/18 A3001 RMK A01 T01840180  RH  097%=      5-min Rain = 0
KAI1 261201Z 15008KT 18/18 A3001 RMK A01 T01840180  RH  097%=      5-min Rain = 0
KAI1 261202Z 15008KT 18/18 A3001 RMK A01 T01840180  RH  097%=      5-min Rain = 0
KAI1 261203Z 15009KT 18/18 A3001 RMK A01 T01840180  RH  097%=      5-min Rain = 0
KAI1 261204Z 15009KT 19/18 A3001 RMK A01 T01850180  RH  097%=      5-min Rain = 0
KAI1 261205Z 15007KT 19/18 A3001 RMK A01 T01850180  RH  097%=      5-min Rain = 0
KAI1 261206Z 15008KT 19/18 A3001 RMK A01 T01850180  RH  097%=      5-min Rain = 0
KAI1 261207Z 15008KT 19/18 A3001 RMK A01 T01850180  RH  097%=      5-min Rain = 0
KAI1 261208Z 15008KT 19/18 A3001 RMK A01 T01850180  RH  097%=      5-min Rain = 0
KAI1 261209Z 15007KT 19/18 A3001 RMK A01 T01850180  RH  097%=      5-min Rain = 0
KAI1 261210Z 16007KT 19/18 A3001 RMK A01 T01850180  RH  097%=      5-min Rain = 0
KAI1 261211Z 15007KT 19/18 A3001 RMK A01 T01850180  RH  097%=      5-min Rain = 0
KAI1 261212Z 15007KT 19/18 A3001 RMK A01 T01850180  RH  097%=      5-min Rain = 0
KAI1 261213Z 15007KT 19/18 A3001 RMK A01 T01850180  RH  097%=      5-min Rain = 0
KAI1 261214Z 15007KT 19/18 A3001 RMK A01 T01850180  RH  097%=      5-min Rain = 0
KAI1 261215Z 15007KT 19/18 A3001 RMK A01 T01850181  RH  097%=      5-min Rain = 0
KAI1 261216Z 15007KT 19/18 A3002 RMK A01 T01850181  RH  097%=      5-min Rain = 0
KAI1 261217Z 15007KT 19/18 A3002 RMK A01 T01850181  RH  097%=      5-min Rain = 0
KAI1 261218Z 15007KT 19/18 A3002 RMK A01 T01850181  RH  097%=      5-min Rain = 0
KAI1 261219Z 15007KT 19/18 A3002 RMK A01 T01850181  RH  097%=      5-min Rain = 0
KAI1 261220Z 15007KT 19/18 A3002 RMK A01 T01850181  RH  097%=      5-min Rain = 0
KAI1 261221Z 15007KT 19/18 A3002 RMK A01 T01860182  RH  097%=      5-min Rain = 0
KAI1 261222Z 15007KT 19/18 A3002 RMK A01 T01860182  RH  097%=      5-min Rain = 0
KAI1 261223Z 15007KT 19/18 A3002 RMK A01 T01860181  RH  097%=      5-min Rain = 0
KAI1 261224Z 15007KT 19/18 A3002 RMK A01 T01860181  RH  097%=      5-min Rain = 0
KAI1 261225Z 15007KT 19/18 A3002 RMK A01 T01860182  RH  097%=      5-min Rain = 0
KAI1 261226Z 15007KT 19/18 A3002 RMK A01 T01860182  RH  097%=      5-min Rain = 0
KAI1 261227Z 15007KT 19/18 A3002 RMK A01 T01860182  RH  097%=      5-min Rain = 0
KAI1 261228Z 15007KT 19/18 A3002 RMK A01 T01860182  RH  097%=      5-min Rain = 0
KAI1 261229Z 15007KT 19/18 A3002 RMK A01 T01860182  RH  097%=      5-min Rain = 0
KAI1 261230Z 15007KT 19/18 A3002 RMK A01 T01860182  RH  097%=      5-min Rain = 0
KAI1 261231Z 15008KT 19/18 A3002 RMK A01 T01860182  RH  097%=      5-min Rain = 0
KAI1 261232Z 15007KT 19/18 A3002 RMK A01 T01860182  RH  097%=      5-min Rain = 0
KAI1 261233Z 15007KT 19/18 A3002 RMK A01 T01870182  RH  097%=      5-min Rain = 0
KAI1 261234Z 15007KT 19/18 A3002 RMK A01 T01860182  RH  097%=      5-min Rain = 0
KAI1 261235Z 15007KT 19/18 A3002 RMK A01 T01870183  RH  097%=      5-min Rain = 0
KAI1 261236Z 15007KT 19/18 A3002 RMK A01 T01870183  RH  097%=      5-min Rain = 0
KAI1 261237Z 15007KT 19/18 A3002 RMK A01 T01870182  RH  097%=      5-min Rain = 0
KAI1 261238Z 14008KT 19/18 A3002 RMK A01 T01870183  RH  097%=      5-min Rain = 0
KAI1 261239Z 14008KT 19/18 A3002 RMK A01 T01870183  RH  097%=      5-min Rain = 0
KAI1 261240Z 14008KT 19/18 A3002 RMK A01 T01870183  RH  097%=      5-min Rain = 0
KAI1 261241Z 14007KT 19/18 A3002 RMK A01 T01870183  RH  097%=      5-min Rain = 0
KAI1 261242Z 15006KT 19/18 A3002 RMK A01 T01870183  RH  097%=      5-min Rain = 0
KAI1 261243Z 15006KT 19/18 A3002 RMK A01 T01870183  RH  097%=      5-min Rain = 0
KAI1 261244Z 15007KT 19/18 A3002 RMK A01 T01880183  RH  097%=      5-min Rain = 0
KAI1 261245Z 14007KT 19/18 A3002 RMK A01 T01870183  RH  097%=      5-min Rain = 0
KAI1 261246Z 15007KT 19/18 A3002 RMK A01 T01870183  RH  097%=      5-min Rain = 0
KAI1 261247Z 15007KT 19/18 A3002 RMK A01 T01870183  RH  097%=      5-min Rain = 0
KAI1 261248Z 14007KT 19/18 A3002 RMK A01 T01870183  RH  097%=      5-min Rain = 0
KAI1 261249Z 14007KT 19/18 A3002 RMK A01 T01880183  RH  097%=      5-min Rain = 0
KAI1 261250Z 15007KT 19/18 A3002 RMK A01 T01870183  RH  097%=      5-min Rain = 0
KAI1 261251Z 15008KT 19/18 A3002 RMK A01 T01880184  RH  097%=      5-min Rain = 0
KAI1 261252Z 15007KT 19/18 A3002 RMK A01 T01880184  RH  097%=      5-min Rain = 0
KAI1 261253Z 14008KT 19/18 A3002 RMK A01 T01880184  RH  097%=      5-min Rain = 0
KAI1 261254Z 14009KT 19/18 A3002 RMK A01 T01880184  RH  097%=      5-min Rain = 0
KAI1 261255Z 15008KT 19/18 A3002 RMK A01 T01880184  RH  097%=      5-min Rain = 0
KAI1 261256Z 15009KT 19/18 A3002 RMK A01 T01880184  RH  097%=      5-min Rain = 0
KAI1 261257Z 15008KT 19/18 A3002 RMK A01 T01890184  RH  097%=      5-min Rain = 0
KAI1 261258Z 15009KT 19/18 A3002 RMK A01 T01890184  RH  097%=      5-min Rain = 0
KAI1 261259Z 15009KT 19/18 A3002 RMK A01 T01890184  RH  097%=      5-min Rain = 0
KAI1 261300Z 15010KT 19/19 A3002 RMK A01 T01890185  RH  097%=      5-min Rain = 0
KAI1 261301Z 15010KT 19/19 A3002 RMK A01 T01890185  RH  097%=      5-min Rain = 0
KAI1 261302Z 15009KT 19/19 A3002 RMK A01 T01900185  RH  097%=      5-min Rain = 0
KAI1 261303Z 16009KT 19/19 A3002 RMK A01 T01900185  RH  097%=      5-min Rain = 0
KAI1 261304Z 15009KT 19/19 A3002 RMK A01 T01900185  RH  097%=      5-min Rain = 0
KAI1 261305Z 16010KT 19/19 A3002 RMK A01 T01900186  RH  097%=      5-min Rain = 0
KAI1 261306Z 16010KT 19/19 A3002 RMK A01 T01900185  RH  097%=      5-min Rain = 0
KAI1 261307Z 15010KT 19/19 A3002 RMK A01 T01900185  RH  097%=      5-min Rain = 0
KAI1 261308Z 15012KT 19/19 A3002 RMK A01 T01910186  RH  097%=      5-min Rain = 0
KAI1 261309Z 16011KT 19/19 A3002 RMK A01 T01910186  RH  097%=      5-min Rain = 0
KAI1 261310Z 16011KT 19/19 A3002 RMK A01 T01910186  RH  097%=      5-min Rain = 0
KAI1 261311Z 15010KT 19/19 A3002 RMK A01 T01910186  RH  097%=      5-min Rain = 0
KAI1 261312Z 15010KT 19/19 A3003 RMK A01 T01910186  RH  097%=      5-min Rain = 0
KAI1 261313Z 15010KT 19/19 A3003 RMK A01 T01910186  RH  097%=      5-min Rain = 0
KAI1 261314Z 15010KT 19/19 A3002 RMK A01 T01910186  RH  097%=      5-min Rain = 0
KAI1 261315Z 16011KT 19/19 A3002 RMK A01 T01920186  RH  097%=      5-min Rain = 0
KAI1 261316Z 15011KT 19/19 A3002 RMK A01 T01920186  RH  097%=      5-min Rain = 0
KAI1 261317Z 16012KT 19/19 A3002 RMK A01 T01920186  RH  097%=      5-min Rain = 0
KAI1 261318Z 16011KT 19/19 A3002 RMK A01 T01920187  RH  097%=      5-min Rain = 0
KAI1 261319Z 15011KT 19/19 A3002 RMK A01 T01920186  RH  097%=      5-min Rain = 0
KAI1 261320Z 15011KT 19/19 A3002 RMK A01 T01920186  RH  097%=      5-min Rain = 0
KAI1 261321Z 15011KT 19/19 A3002 RMK A01 T01930187  RH  096%=      5-min Rain = 0
KAI1 261322Z 15010KT 19/19 A3002 RMK A01 T01930187  RH  096%=      5-min Rain = 0
KAI1 261323Z 15010KT 19/19 A3002 RMK A01 T01920187  RH  097%=      5-min Rain = 0
KAI1 261324Z 15011KT 19/19 A3002 RMK A01 T01930187  RH  097%=      5-min Rain = 0
KAI1 261325Z 15010KT 19/19 A3002 RMK A01 T01920187  RH  097%=      5-min Rain = 0
KAI1 261326Z 15011KT 19/19 A3002 RMK A01 T01930187  RH  096%=      5-min Rain = 0
KAI1 261327Z 15011KT 19/19 A3002 RMK A01 T01930187  RH  096%=      5-min Rain = 0
KAI1 261328Z 15011KT 19/19 A3002 RMK A01 T01930187  RH  096%=      5-min Rain = 0
KAI1 261329Z 15011KT 19/19 A3002 RMK A01 T01930187  RH  096%=      5-min Rain = 0
KAI1 261330Z 15012KT 19/19 A3002 RMK A01 T01930187  RH  096%=      5-min Rain = 0
KAI1 261331Z 15012KT 19/19 A3002 RMK A01 T01940187  RH  096%=      5-min Rain = 0
KAI1 261332Z 16013KT 19/19 A3002 RMK A01 T01940187  RH  096%=      5-min Rain = 0
KAI1 261333Z 15012KT 19/19 A3003 RMK A01 T01940188  RH  096%=      5-min Rain = 0
KAI1 261334Z 15012KT 19/19 A3003 RMK A01 T01940188  RH  096%=      5-min Rain = 0
KAI1 261335Z 15010KT 19/19 A3003 RMK A01 T01940188  RH  096%=      5-min Rain = 0
KAI1 261336Z 16010KT 19/19 A3003 RMK A01 T01940188  RH  096%=      5-min Rain = 0
KAI1 261337Z 16010KT 19/19 A3003 RMK A01 T01940188  RH  096%=      5-min Rain = 0
KAI1 261338Z 16011KT 19/19 A3003 RMK A01 T01940188  RH  096%=      5-min Rain = 0
KAI1 261339Z 15012KT 19/19 A3003 RMK A01 T01940188  RH  096%=      5-min Rain = 0
KAI1 261340Z 16011KT 19/19 A3003 RMK A01 T01940188  RH  096%=      5-min Rain = 0
KAI1 261341Z 16010KT 20/19 A3003 RMK A01 T01950188  RH  096%=      5-min Rain = 0
KAI1 261342Z 15009KT 20/19 A3003 RMK A01 T01950188  RH  096%=      5-min Rain = 0
KAI1 261343Z 15011KT 20/19 A3003 RMK A01 T01950189  RH  096%=      5-min Rain = 0
KAI1 261344Z 16009KT 20/19 A3003 RMK A01 T01950188  RH  096%=      5-min Rain = 0
KAI1 261345Z 15009KT 20/19 A3003 RMK A01 T01950189  RH  096%=      5-min Rain = 0
KAI1 261346Z 15011KT 20/19 A3003 RMK A01 T01950189  RH  096%=      5-min Rain = 0
KAI1 261347Z 16012KT 20/19 A3003 RMK A01 T01950189  RH  096%=      5-min Rain = 0
KAI1 261348Z 15011KT 20/19 A3003 RMK A01 T01950188  RH  096%=      5-min Rain = 0
KAI1 261349Z 15011KT 20/19 A3003 RMK A01 T01950189  RH  096%=      5-min Rain = 0
KAI1 261350Z 15013KT 20/19 A3003 RMK A01 T01950189  RH  096%=      5-min Rain = 0
KAI1 261351Z 15012KT 20/19 A3003 RMK A01 T01950188  RH  096%=      5-min Rain = 0
KAI1 261352Z 15012KT 20/19 A3003 RMK A01 T01960189  RH  096%=      5-min Rain = 0
KAI1 261353Z 15011KT 20/19 A3003 RMK A01 T01960189  RH  096%=      5-min Rain = 0
KAI1 261354Z 15012KT 20/19 A3003 RMK A01 T01950188  RH  096%=      5-min Rain = 0
KAI1 261355Z 15013KT 20/19 A3003 RMK A01 T01950188  RH  096%=      5-min Rain = 0
KAI1 261356Z 15011KT 20/19 A3003 RMK A01 T01950188  RH  096%=      5-min Rain = 0
KAI1 261357Z 15011KT 20/19 A3003 RMK A01 T01950188  RH  096%=      5-min Rain = 0
KAI1 261358Z 15011KT 20/19 A3003 RMK A01 T01950189  RH  096%=      5-min Rain = 0
KAI1 261359Z 15011KT 20/19 A3003 RMK A01 T01950189  RH  096%=      5-min Rain = 0
KAI1 261400Z 15011KT 20/19 A3003 RMK A01 T01950189  RH  096%=      5-min Rain = 0
KAI1 261401Z 15012KT 20/19 A3003 RMK A01 T01950189  RH  096%=      5-min Rain = 0
KAI1 261402Z 15011KT 20/19 A3003 RMK A01 T01950189  RH  096%=      5-min Rain = 0
KAI1 261403Z 15012KT 20/19 A3003 RMK A01 T01950189  RH  096%=      5-min Rain = 0
KAI1 261404Z 15011KT 20/19 A3004 RMK A01 T01950189  RH  096%=      5-min Rain = 0
KAI1 261405Z 15011KT 20/19 A3004 RMK A01 T01950188  RH  096%=      5-min Rain = 0
KAI1 261406Z 15013KT 20/19 A3004 RMK A01 T01950188  RH  096%=      5-min Rain = 0
KAI1 261407Z 15013KT 20/19 A3004 RMK A01 T01950188  RH  096%=      5-min Rain = 0
KAI1 261408Z 15011KT 20/19 A3004 RMK A01 T01960189  RH  096%=      5-min Rain = 0
KAI1 261409Z 15012KT 20/19 A3004 RMK A01 T01960189  RH  096%=      5-min Rain = 0
KAI1 261410Z 15011KT 20/19 A3004 RMK A01 T01960189  RH  096%=      5-min Rain = 0
KAI1 261411Z 15011KT 20/19 A3004 RMK A01 T01960189  RH  096%=      5-min Rain = 0
KAI1 261412Z 15012KT 20/19 A3004 RMK A01 T01960190  RH  096%=      5-min Rain = 0
KAI1 261413Z 15012KT 20/19 A3004 RMK A01 T01960189  RH  096%=      5-min Rain = 0
KAI1 261414Z 16011KT 20/19 A3004 RMK A01 T01960189  RH  096%=      5-min Rain = 0
KAI1 261415Z 15010KT 20/19 A3004 RMK A01 T01960189  RH  096%=      5-min Rain = 0
KAI1 261416Z 15010KT 20/19 A3004 RMK A01 T01970190  RH  096%=      5-min Rain = 0
KAI1 261417Z 15012KT 20/19 A3004 RMK A01 T01970190  RH  096%=      5-min Rain = 0
KAI1 261418Z 16011KT 20/19 A3004 RMK A01 T01970190  RH  096%=      5-min Rain = 0
KAI1 261419Z 15012KT 20/19 A3004 RMK A01 T01970190  RH  096%=      5-min Rain = 0
KAI1 261420Z 16011KT 20/19 A3004 RMK A01 T01970190  RH  095%=      5-min Rain = 0
KAI1 261421Z 15009KT 20/19 A3004 RMK A01 T01980190  RH  095%=      5-min Rain = 0
KAI1 261422Z 15011KT 20/19 A3004 RMK A01 T01980190  RH  095%=      5-min Rain = 0
KAI1 261423Z 16011KT 20/19 A3004 RMK A01 T01980190  RH  095%=      5-min Rain = 0
KAI1 261424Z 15012KT 20/19 A3004 RMK A01 T01980190  RH  095%=      5-min Rain = 0
KAI1 261425Z 15013KT 20/19 A3004 RMK A01 T01980190  RH  095%=      5-min Rain = 0
KAI1 261426Z 16012KT 20/19 A3004 RMK A01 T01980190  RH  095%=      5-min Rain = 0
KAI1 261427Z 15013KT 20/19 A3004 RMK A01 T01990190  RH  095%=      5-min Rain = 0
KAI1 261428Z 15015KT 20/19 A3004 RMK A01 T01980189  RH  095%=      5-min Rain = 0
KAI1 261429Z 16013KT 20/19 A3004 RMK A01 T01990189  RH  094%=      5-min Rain = 0
KAI1 261430Z 16012KT 20/19 A3004 RMK A01 T01990189  RH  094%=      5-min Rain = 0
KAI1 261431Z 17013KT 20/19 A3004 RMK A01 T01980189  RH  094%=      5-min Rain = 0
KAI1 261432Z 17012KT 20/19 A3004 RMK A01 T01990190  RH  094%=      5-min Rain = 0
KAI1 261433Z 17011KT 20/19 A3005 RMK A01 T01990190  RH  095%=      5-min Rain = 0
KAI1 261434Z 17013KT 20/19 A3005 RMK A01 T01980190  RH  095%=      5-min Rain = 0
KAI1 261435Z 17011KT 20/19 A3005 RMK A01 T01990190  RH  095%=      5-min Rain = 0
KAI1 261436Z 16010KT 20/19 A3005 RMK A01 T01990190  RH  095%=      5-min Rain = 0
KAI1 261437Z 16010KT 20/19 A3005 RMK A01 T01990190  RH  095%=      5-min Rain = 0
KAI1 261438Z 16013KT 20/19 A3005 RMK A01 T01980190  RH  095%=      5-min Rain = 0
KAI1 261439Z 17013KT 20/19 A3005 RMK A01 T01980190  RH  095%=      5-min Rain = 0
KAI1 261440Z 16012KT 20/19 A3005 RMK A01 T01990190  RH  095%=      5-min Rain = 0
KAI1 261441Z 16013KT 20/19 A3005 RMK A01 T01990190  RH  095%=      5-min Rain = 0
KAI1 261442Z 16014KT 20/19 A3005 RMK A01 T01990190  RH  095%=      5-min Rain = 0
KAI1 261443Z 16014KT 20/19 A3005 RMK A01 T01990190  RH  095%=      5-min Rain = 0
KAI1 261444Z 16013KT 20/19 A3005 RMK A01 T01990190  RH  095%=      5-min Rain = 0
KAI1 261445Z 16014KT 20/19 A3004 RMK A01 T01990190  RH  094%=      5-min Rain = 0
KAI1 261446Z 16014KT 20/19 A3004 RMK A01 T01990190  RH  094%=      5-min Rain = 0
KAI1 261447Z 16012KT 20/19 A3005 RMK A01 T02000190  RH  094%=      5-min Rain = 0
KAI1 261448Z 16014KT 20/19 A3005 RMK A01 T01990190  RH  094%=      5-min Rain = 0
KAI1 261449Z 16011KT 20/19 A3005 RMK A01 T01990190  RH  094%=      5-min Rain = 0
KAI1 261450Z 16011KT 20/19 A3005 RMK A01 T01990191  RH  095%=      5-min Rain = 0
KAI1 261451Z 16014KT 20/19 A3005 RMK A01 T01990191  RH  095%=      5-min Rain = 0
KAI1 261452Z 16013KT 20/19 A3005 RMK A01 T01990190  RH  095%=      5-min Rain = 0
KAI1 261453Z 16014KT 20/19 A3005 RMK A01 T01990191  RH  095%=      5-min Rain = 0
KAI1 261454Z 16013KT 20/19 A3005 RMK A01 T01990191  RH  095%=      5-min Rain = 0
KAI1 261455Z 16015KT 20/19 A3004 RMK A01 T01990190  RH  095%=      5-min Rain = 0
KAI1 261456Z 16014KT 20/19 A3005 RMK A01 T01990190  RH  095%=      5-min Rain = 0
KAI1 261457Z 16013KT 20/19 A3005 RMK A01 T01990190  RH  095%=      5-min Rain = 0
KAI1 261458Z 16011KT 20/19 A3005 RMK A01 T01990191  RH  095%=      5-min Rain = 0
KAI1 261459Z 16011KT 20/19 A3005 RMK A01 T01990191  RH  095%=      5-min Rain = 0
KAI1 261500Z 16013KT 20/19 A3005 RMK A01 T01990191  RH  095%=      5-min Rain = 0
KAI1 261501Z 16011KT 20/19 A3005 RMK A01 T01990191  RH  095%=      5-min Rain = 0
KAI1 261502Z 16014KT 20/19 A3005 RMK A01 T01990191  RH  095%=      5-min Rain = 0
KAI1 261503Z 16013KT 20/19 A3005 RMK A01 T01990191  RH  095%=      5-min Rain = 0
KAI1 261504Z 16012KT 20/19 A3005 RMK A01 T01990191  RH  095%=      5-min Rain = 0
KAI1 261505Z 16015KT 20/19 A3005 RMK A01 T01990191  RH  095%=      5-min Rain = 0
KAI1 261506Z 16014KT 20/19 A3005 RMK A01 T02000191  RH  095%=      5-min Rain = 0
KAI1 261507Z 16014KT 20/19 A3005 RMK A01 T01990191  RH  095%=      5-min Rain = 0
KAI1 261508Z 16015KT 20/19 A3005 RMK A01 T01990190  RH  095%=      5-min Rain = 0
KAI1 261509Z 16013KT 20/19 A3005 RMK A01 T01990190  RH  094%=      5-min Rain = 0
KAI1 261510Z 16014KT 20/19 A3004 RMK A01 T02000191  RH  095%=      5-min Rain = 0
KAI1 261511Z 16014KT 20/19 A3004 RMK A01 T02000191  RH  094%=      5-min Rain = 0
KAI1 261512Z 16014KT 20/19 A3004 RMK A01 T01990190  RH  094%=      5-min Rain = 0
KAI1 261513Z 16014KT 20/19 A3004 RMK A01 T01990190  RH  094%=      5-min Rain = 0
KAI1 261514Z 16013KT 20/19 A3004 RMK A01 T02000191  RH  094%=      5-min Rain = 0
KAI1 261515Z 16014KT 20/19 A3004 RMK A01 T02000190  RH  094%=      5-min Rain = 0
KAI1 261516Z 16015KT 20/19 A3004 RMK A01 T02000190  RH  094%=      5-min Rain = 0
KAI1 261517Z 17012KT 20/19 A3004 RMK A01 T02000190  RH  094%=      5-min Rain = 0
KAI1 261518Z 16012KT 20/19 A3004 RMK A01 T02000191  RH  095%=      5-min Rain = 0
KAI1 261519Z 16014KT 20/19 A3004 RMK A01 T02000191  RH  095%=      5-min Rain = 0
KAI1 261520Z 16013KT 20/19 A3004 RMK A01 T02000191  RH  095%=      5-min Rain = 0
KAI1 261521Z 16013KT 20/19 A3004 RMK A01 T02000191  RH  095%=      5-min Rain = 0
KAI1 261522Z 16014KT 20/19 A3004 RMK A01 T02000191  RH  095%=      5-min Rain = 0
KAI1 261523Z 16012KT 20/19 A3004 RMK A01 T02000191  RH  095%=      5-min Rain = 0
KAI1 261524Z 16014KT 20/19 A3004 RMK A01 T02000191  RH  095%=      5-min Rain = 0
KAI1 261525Z 16013KT 20/19 A3004 RMK A01 T02000191  RH  095%=      5-min Rain = 0
KAI1 261526Z 16013KT 20/19 A3004 RMK A01 T02000191  RH  095%=      5-min Rain = 0
KAI1 261527Z 16014KT 20/19 A3004 RMK A01 T02000191  RH  095%=      5-min Rain = 0
KAI1 261528Z 16014KT 20/19 A3004 RMK A01 T01990191  RH  095%=      5-min Rain = 0
KAI1 261529Z 16012KT 20/19 A3004 RMK A01 T01990191  RH  095%=      5-min Rain = 0
KAI1 261530Z 16012KT 20/19 A3004 RMK A01 T01990191  RH  095%=      5-min Rain = 0
KAI1 261531Z 16014KT 20/19 A3004 RMK A01 T01990192  RH  095%=      5-min Rain = 0
KAI1 261532Z 16014KT 20/19 A3004 RMK A01 T01990191  RH  095%=      5-min Rain = 0
KAI1 261533Z 16013KT 20/19 A3004 RMK A01 T01990191  RH  095%=      5-min Rain = 0
KAI1 261534Z 16011KT 20/19 A3004 RMK A01 T01990191  RH  095%=      5-min Rain = 0
KAI1 261535Z 15011KT 20/19 A3004 RMK A01 T01990192  RH  096%=      5-min Rain = 0
KAI1 261536Z 15014KT 20/19 A3004 RMK A01 T01980191  RH  096%=      5-min Rain = 0
KAI1 261537Z 15015KT 20/19 A3004 RMK A01 T01980191  RH  096%=      5-min Rain = 0
KAI1 261538Z 16014KT 20/19 A3004 RMK A01 T01980191  RH  096%=      5-min Rain = 0
KAI1 261539Z 16013KT 20/19 A3004 RMK A01 T01980191  RH  096%=      5-min Rain = 0
KAI1 261540Z 16013KT 20/19 A3004 RMK A01 T01980191  RH  096%=      5-min Rain = 0
KAI1 261541Z 16011KT 20/19 A3004 RMK A01 T01980191  RH  096%=      5-min Rain = 0
KAI1 261542Z 16012KT 20/19 A3004 RMK A01 T01980192  RH  096%=      5-min Rain = 0
KAI1 261543Z 15013KT 20/19 A3004 RMK A01 T01970191  RH  096%=      5-min Rain = 0
KAI1 261544Z 16012KT 20/19 A3004 RMK A01 T01970191  RH  096%=      5-min Rain = 0
KAI1 261545Z 15012KT 20/19 A3004 RMK A01 T01970192  RH  097%=      5-min Rain = 0
KAI1 261546Z 15013KT 20/19 A3004 RMK A01 T01970192  RH  097%=      5-min Rain = 0
KAI1 261547Z 15012KT 20/19 A3004 RMK A01 T01970192  RH  097%=      5-min Rain = 0
KAI1 261548Z 14014KT 20/19 A3003 RMK A01 T01970191  RH  097%=      5-min Rain = 0
KAI1 261549Z 15015KT 20/19 A3003 RMK A01 T01960191  RH  096%=      5-min Rain = 0
KAI1 261550Z 15013KT 20/19 A3003 RMK A01 T01960190  RH  097%=      5-min Rain = 0
KAI1 261551Z 14013KT 20/19 A3003 RMK A01 T01960191  RH  097%=      5-min Rain = 0
KAI1 261552Z 15015KT 20/19 A3003 RMK A01 T01960190  RH  097%=      5-min Rain = 0
KAI1 261553Z 14013KT 20/19 A3003 RMK A01 T01950190  RH  097%=      5-min Rain = 0
KAI1 261554Z 15013KT 20/19 A3003 RMK A01 T01950190  RH  097%=      5-min Rain = 0
KAI1 261555Z 15014KT 19/19 A3003 RMK A01 T01940190  RH  097%=      5-min Rain = 0
KAI1 261556Z 15014KT 19/19 A3003 RMK A01 T01940190  RH  097%=      5-min Rain = 0
KAI1 261557Z 15012KT 19/19 A3003 RMK A01 T01940190  RH  097%=      5-min Rain = 0
KAI1 261558Z 15014KT 19/19 A3003 RMK A01 T01940190  RH  097%=      5-min Rain = 0
KAI1 261559Z 15014KT 19/19 A3003 RMK A01 T01940190  RH  097%=      5-min Rain = 0
KAI1 261600Z 15012KT 19/19 A3003 RMK A01 T01940190  RH  097%=      5-min Rain = 0
KAI1 261601Z 15012KT 19/19 A3003 RMK A01 T01940190  RH  097%=      5-min Rain = 0
KAI1 261602Z 14012KT 20/19 A3003 RMK A01 T01950191  RH  098%=      5-min Rain = 0
KAI1 261603Z 14014KT 19/19 A3003 RMK A01 T01940190  RH  097%=      5-min Rain = 0
KAI1 261604Z 14013KT 19/19 A3003 RMK A01 T01940190  RH  097%=      5-min Rain = 0
KAI1 261605Z 15014KT 19/19 A3003 RMK A01 T01940190  RH  098%=      5-min Rain = 0
KAI1 261606Z 15014KT 20/19 A3003 RMK A01 T01950190  RH  097%=      5-min Rain = 0
KAI1 261607Z 15012KT 19/19 A3003 RMK A01 T01940190  RH  097%=      5-min Rain = 0
KAI1 261608Z 15012KT 19/19 A3003 RMK A01 T01940190  RH  098%=      5-min Rain = 0
KAI1 261609Z 15014KT 19/19 A3003 RMK A01 T01940190  RH  098%=      5-min Rain = 0
KAI1 261610Z 15013KT 19/19 A3003 RMK A01 T01940190  RH  097%=      5-min Rain = 0
KAI1 261611Z 15013KT 19/19 A3003 RMK A01 T01940190  RH  097%=      5-min Rain = 0
KAI1 261612Z 15013KT 20/19 A3003 RMK A01 T01950191  RH  098%=      5-min Rain = 0
KAI1 261613Z 15014KT 20/19 A3003 RMK A01 T01950191  RH  097%=      5-min Rain = 0
KAI1 261614Z 15013KT 20/19 A3003 RMK A01 T01950191  RH  097%=      5-min Rain = 0
KAI1 261615Z 15014KT 20/19 A3002 RMK A01 T01950191  RH  097%=      5-min Rain = 0
KAI1 261616Z 15015KT 20/19 A3002 RMK A01 T01950191  RH  097%=      5-min Rain = 0
KAI1 261617Z 15014KT 20/19 A3002 RMK A01 T01950190  RH  097%=      5-min Rain = 0
KAI1 261618Z 15014KT 20/19 A3002 RMK A01 T01950190  RH  097%=      5-min Rain = 0
KAI1 261619Z 15013KT 20/19 A3002 RMK A01 T01950191  RH  097%=      5-min Rain = 0
KAI1 261620Z 15013KT 20/19 A3002 RMK A01 T01950190  RH  097%=      5-min Rain = 0
KAI1 261621Z 16015KT 20/19 A3003 RMK A01 T01950190  RH  097%=      5-min Rain = 0
KAI1 261622Z 15013KT 20/19 A3003 RMK A01 T01950190  RH  097%=      5-min Rain = 0
KAI1 261623Z 15013KT 20/19 A3003 RMK A01 T01950190  RH  097%=      5-min Rain = 0
KAI1 261624Z 16012KT 20/19 A3003 RMK A01 T01950191  RH  097%=      5-min Rain = 0
KAI1 261625Z 15013KT 20/19 A3003 RMK A01 T01950191  RH  097%=      5-min Rain = 0
KAI1 261626Z 15014KT 20/19 A3003 RMK A01 T01950191  RH  097%=      5-min Rain = 0
KAI1 261627Z 15016KT 20/19 A3003 RMK A01 T01950191  RH  097%=      5-min Rain = 0
KAI1 261628Z 15015KT 20/19 A3003 RMK A01 T01950190  RH  097%=      5-min Rain = 0
KAI1 261629Z 15013G18KT 20/19 A3003 RMK A01 T01950190  RH  097%=      5-min Rain = 0
KAI1 261630Z 15016KT 20/19 A3003 RMK A01 T01950190  RH  097%=      5-min Rain = 0
KAI1 261631Z 16015KT 20/19 A3003 RMK A01 T01950189  RH  096%=      5-min Rain = 0
KAI1 261632Z 16014KT 20/19 A3003 RMK A01 T01950189  RH  096%=      5-min Rain = 0
KAI1 261633Z 15015KT 20/19 A3003 RMK A01 T01960190  RH  096%=      5-min Rain = 0
KAI1 261634Z 15015KT 20/19 A3003 RMK A01 T01960190  RH  096%=      5-min Rain = 0
KAI1 261635Z 16015KT 20/19 A3003 RMK A01 T01960191  RH  096%=      5-min Rain = 0
KAI1 261636Z 16014KT 20/19 A3003 RMK A01 T01960190  RH  096%=      5-min Rain = 0
KAI1 261637Z 16013KT 20/19 A3003 RMK A01 T01970190  RH  096%=      5-min Rain = 0
KAI1 261638Z 16012KT 20/19 A3003 RMK A01 T01960190  RH  096%=      5-min Rain = 0
KAI1 261639Z 16013KT 20/19 A3003 RMK A01 T01960190  RH  096%=      5-min Rain = 0
KAI1 261640Z 16014KT 20/19 A3003 RMK A01 T01960191  RH  096%=      5-min Rain = 0
KAI1 261641Z 16012KT 20/19 A3003 RMK A01 T01960190  RH  096%=      5-min Rain = 0
KAI1 261642Z 16012KT 20/19 A3003 RMK A01 T01970191  RH  096%=      5-min Rain = 0
KAI1 261643Z 16013KT 20/19 A3003 RMK A01 T01970191  RH  096%=      5-min Rain = 0
KAI1 261644Z 16013KT 20/19 A3003 RMK A01 T01970191  RH  096%=      5-min Rain = 0
KAI1 261645Z 16014KT 20/19 A3003 RMK A01 T01970191  RH  096%=      5-min Rain = 0
KAI1 261646Z 16014KT 20/19 A3003 RMK A01 T01970191  RH  096%=      5-min Rain = 0
KAI1 261647Z 16013KT 20/19 A3003 RMK A01 T01970191  RH  096%=      5-min Rain = 0
KAI1 261648Z 16013KT 20/19 A3003 RMK A01 T01970191  RH  096%=      5-min Rain = 0
KAI1 261649Z 15017KT 20/19 A3003 RMK A01 T01970191  RH  096%=      5-min Rain = 0
KAI1 261650Z 16013KT 20/19 A3003 RMK A01 T01970190  RH  096%=      5-min Rain = 0
KAI1 261651Z 16014KT 20/19 A3003 RMK A01 T01970190  RH  096%=      5-min Rain = 0
KAI1 261652Z 15015KT 20/19 A3003 RMK A01 T01970190  RH  096%=      5-min Rain = 0
KAI1 261653Z 16014KT 20/19 A3003 RMK A01 T01970190  RH  096%=      5-min Rain = 0
KAI1 261654Z 16014KT 20/19 A3003 RMK A01 T01970190  RH  096%=      5-min Rain = 0
KAI1 261655Z 16015KT 20/19 A3003 RMK A01 T01970190  RH  096%=      5-min Rain = 0
KAI1 261656Z 16015KT 20/19 A3003 RMK A01 T01970190  RH  096%=      5-min Rain = 0
KAI1 261657Z 16014KT 20/19 A3003 RMK A01 T01970190  RH  096%=      5-min Rain = 0
KAI1 261658Z 16014KT 20/19 A3003 RMK A01 T01970190  RH  096%=      5-min Rain = 0
KAI1 261659Z 16014KT 20/19 A3003 RMK A01 T01970190  RH  096%=      5-min Rain = 0
KAI1 261700Z 16014KT 20/19 A3003 RMK A01 T01970190  RH  096%=      5-min Rain = 0
KAI1 261701Z 16015KT 20/19 A3003 RMK A01 T01970190  RH  096%=      5-min Rain = 0
KAI1 261702Z 16013KT 20/19 A3003 RMK A01 T01970190  RH  096%=      5-min Rain = 0
KAI1 261703Z 16012KT 20/19 A3003 RMK A01 T01980191  RH  096%=      5-min Rain = 0
KAI1 261704Z 15014KT 20/19 A3003 RMK A01 T01980191  RH  096%=      5-min Rain = 0
KAI1 261705Z 16017KT 20/19 A3003 RMK A01 T01980191  RH  096%=      5-min Rain = 0
KAI1 261706Z 16016KT 20/19 A3003 RMK A01 T01980190  RH  095%=      5-min Rain = 0
KAI1 261707Z 16016KT 20/19 A3003 RMK A01 T01980190  RH  095%=      5-min Rain = 0
KAI1 261708Z 16017KT 20/19 A3003 RMK A01 T01980190  RH  095%=      5-min Rain = 0
KAI1 261709Z 16015KT 20/19 A3003 RMK A01 T01980190  RH  095%=      5-min Rain = 0
KAI1 261710Z 16013KT 20/19 A3003 RMK A01 T01990191  RH  095%=      5-min Rain = 0
KAI1 261711Z 16011KT 20/19 A3003 RMK A01 T01990192  RH  096%=      5-min Rain = 0
KAI1 261712Z 16014KT 20/19 A3003 RMK A01 T01990192  RH  096%=      5-min Rain = 0
KAI1 261713Z 16013KT 20/19 A3003 RMK A01 T01990191  RH  095%=      5-min Rain = 0
KAI1 261714Z 16015KT 20/19 A3003 RMK A01 T01990192  RH  096%=      5-min Rain = 0
KAI1 261715Z 16014KT 20/19 A3003 RMK A01 T01990192  RH  096%=      5-min Rain = 0
KAI1 261716Z 16015KT 20/19 A3003 RMK A01 T01990192  RH  096%=      5-min Rain = 0
KAI1 261717Z 16015KT 20/19 A3003 RMK A01 T01990191  RH  095%=      5-min Rain = 0
KAI1 261718Z 15016KT 20/19 A3003 RMK A01 T01990191  RH  095%=      5-min Rain = 0
KAI1 261719Z 16017KT 20/19 A3003 RMK A01 T01990191  RH  095%=      5-min Rain = 0
KAI1 261720Z 16013KT 20/19 A3003 RMK A01 T01990191  RH  095%=      5-min Rain = 0
KAI1 261721Z 16014KT 20/19 A3003 RMK A01 T01990192  RH  095%=      5-min Rain = 0
KAI1 261722Z 16014KT 20/19 A3003 RMK A01 T01990191  RH  095%=      5-min Rain = 0
KAI1 261723Z 16017KT 20/19 A3003 RMK A01 T01990191  RH  095%=      5-min Rain = 0
KAI1 261724Z 16017KT 20/19 A3003 RMK A01 T01990190  RH  095%=      5-min Rain = 0
KAI1 261725Z 16014KT 20/19 A3003 RMK A01 T01990191  RH  095%=      5-min Rain = 0
KAI1 261726Z 16017KT 20/19 A3003 RMK A01 T02000191  RH  095%=      5-min Rain = 0
KAI1 261727Z 16016KT 20/19 A3003 RMK A01 T02000191  RH  094%=      5-min Rain = 0
KAI1 261728Z 16016KT 20/19 A3003 RMK A01 T02000190  RH  094%=      5-min Rain = 0
KAI1 261729Z 16016KT 20/19 A3003 RMK A01 T02010191  RH  094%=      5-min Rain = 0
KAI1 261730Z 16016KT 20/19 A3003 RMK A01 T02010189  RH  093%=      5-min Rain = 0
KAI1 261731Z 16015KT 20/19 A3003 RMK A01 T02010191  RH  094%=      5-min Rain = 0
KAI1 261732Z 16016KT 20/19 A3003 RMK A01 T02010191  RH  094%=      5-min Rain = 0
KAI1 261733Z 15015KT 20/19 A3003 RMK A01 T02010191  RH  094%=      5-min Rain = 0
KAI1 261734Z 15015KT 20/19 A3003 RMK A01 T02010191  RH  094%=      5-min Rain = 0
KAI1 261735Z 15016KT 20/19 A3003 RMK A01 T02010191  RH  094%=      5-min Rain = 0
KAI1 261736Z 15016KT 20/19 A3003 RMK A01 T02010190  RH  094%=      5-min Rain = 0
KAI1 261737Z 16014KT 20/19 A3003 RMK A01 T02010191  RH  094%=      5-min Rain = 0
KAI1 261738Z 16015KT 20/19 A3003 RMK A01 T02010191  RH  094%=      5-min Rain = 0
KAI1 261739Z 16017KT 20/19 A3003 RMK A01 T02010190  RH  093%=      5-min Rain = 0
KAI1 261740Z 16015KT 20/19 A3003 RMK A01 T02010190  RH  093%=      5-min Rain = 0
KAI1 261741Z 16015KT 20/19 A3003 RMK A01 T02010190  RH  093%=      5-min Rain = 0
KAI1 261742Z 16012KT 20/19 A3003 RMK A01 T02020191  RH  093%=      5-min Rain = 0
KAI1 261743Z 16014KT 20/19 A3003 RMK A01 T02010192  RH  094%=      5-min Rain = 0
KAI1 261744Z 16014KT 20/19 A3003 RMK A01 T02020191  RH  093%=      5-min Rain = 0
KAI1 261745Z 15012KT 20/19 A3003 RMK A01 T02020191  RH  093%=      5-min Rain = 0
KAI1 261746Z 16014KT 20/19 A3003 RMK A01 T02020191  RH  094%=      5-min Rain = 0
KAI1 261747Z 16013KT 20/19 A3003 RMK A01 T02020191  RH  093%=      5-min Rain = 0
KAI1 261748Z 16016KT 20/19 A3003 RMK A01 T02020191  RH  093%=      5-min Rain = 0
KAI1 261749Z 16015KT 20/19 A3003 RMK A01 T02030191  RH  093%=      5-min Rain = 0
KAI1 261750Z 16015KT 20/19 A3003 RMK A01 T02030190  RH  093%=      5-min Rain = 0
KAI1 261751Z 15015KT 20/19 A3003 RMK A01 T02030191  RH  093%=      5-min Rain = 0
KAI1 261752Z 16013KT 20/19 A3003 RMK A01 T02030190  RH  093%=      5-min Rain = 0
KAI1 261753Z 16013KT 20/19 A3003 RMK A01 T02030191  RH  093%=      5-min Rain = 0
KAI1 261754Z 15015KT 20/19 A3003 RMK A01 T02030191  RH  093%=      5-min Rain = 0
KAI1 261755Z 16015KT 20/19 A3003 RMK A01 T02030191  RH  093%=      5-min Rain = 0
KAI1 261756Z 15013KT 20/19 A3003 RMK A01 T02030192  RH  093%=      5-min Rain = 0
KAI1 261757Z 15014KT 20/19 A3003 RMK A01 T02030192  RH  093%=      5-min Rain = 0
KAI1 261758Z 15015KT 20/19 A3003 RMK A01 T02040192  RH  093%=      5-min Rain = 0
KAI1 261759Z 16016KT 20/19 A3002 RMK A01 T02030191  RH  093%=      5-min Rain = 0
KAI1 261800Z 16017KT 20/19 A3002 RMK A01 T02030190  RH  092%=      5-min Rain = 0
KAI1 261801Z 16016KT 20/19 A3002 RMK A01 T02030190  RH  092%=      5-min Rain = 0
KAI1 261802Z 16015KT 20/19 A3003 RMK A01 T02030190  RH  092%=      5-min Rain = 0
KAI1 261803Z 16015KT 20/19 A3002 RMK A01 T02030191  RH  093%=      5-min Rain = 0
KAI1 261804Z 16015KT 20/19 A3003 RMK A01 T02040191  RH  092%=      5-min Rain = 0
KAI1 261805Z 17018KT 20/19 A3002 RMK A01 T02040189  RH  091%=      5-min Rain = 0
KAI1 261806Z 16015KT 20/19 A3002 RMK A01 T02040189  RH  091%=      5-min Rain = 0
KAI1 261807Z 16014KT 20/19 A3002 RMK A01 T02040190  RH  092%=      5-min Rain = 0
KAI1 261808Z 16015KT 20/19 A3002 RMK A01 T02040191  RH  092%=      5-min Rain = 0
KAI1 261809Z 16015KT 20/19 A3002 RMK A01 T02040191  RH  092%=      5-min Rain = 0
KAI1 261810Z 16013KT 20/19 A3002 RMK A01 T02040191  RH  092%=      5-min Rain = 0
KAI1 261811Z 15013KT 20/19 A3002 RMK A01 T02040191  RH  092%=      5-min Rain = 0
KAI1 261812Z 16015KT 21/19 A3002 RMK A01 T02050192  RH  092%=      5-min Rain = 0
KAI1 261813Z 16016KT 21/19 A3002 RMK A01 T02050191  RH  092%=      5-min Rain = 0
KAI1 261814Z 15015KT 21/19 A3002 RMK A01 T02050191  RH  092%=      5-min Rain = 0
KAI1 261815Z 15014KT 20/19 A3002 RMK A01 T02040191  RH  092%=      5-min Rain = 0
KAI1 261816Z 16015KT 20/19 A3002 RMK A01 T02040191  RH  092%=      5-min Rain = 0
KAI1 261817Z 16017KT 20/19 A3002 RMK A01 T02040191  RH  092%=      5-min Rain = 0
KAI1 261818Z 16015KT 20/19 A3002 RMK A01 T02040190  RH  092%=      5-min Rain = 0
KAI1 261819Z 16013KT 20/19 A3002 RMK A01 T02040190  RH  092%=      5-min Rain = 0
KAI1 261820Z 16013KT 20/19 A3002 RMK A01 T02040191  RH  092%=      5-min Rain = 0
KAI1 261821Z 16013KT 20/19 A3002 RMK A01 T02040191  RH  092%=      5-min Rain = 0
KAI1 261822Z 16014KT 20/19 A3002 RMK A01 T02040191  RH  092%=      5-min Rain = 0
KAI1 261823Z 16015KT 20/19 A3002 RMK A01 T02040191  RH  092%=      5-min Rain = 0
KAI1 261824Z 16018KT 20/19 A3002 RMK A01 T02040190  RH  092%=      5-min Rain = 0
KAI1 261825Z 16014KT 20/19 A3002 RMK A01 T02040189  RH  091%=      5-min Rain = 0
KAI1 261826Z 16015KT 20/19 A3002 RMK A01 T02040190  RH  092%=      5-min Rain = 0
KAI1 261827Z 16016KT 20/19 A3002 RMK A01 T02040190  RH  091%=      5-min Rain = 0
KAI1 261828Z 16016KT 20/19 A3002 RMK A01 T02040189  RH  091%=      5-min Rain = 0
KAI1 261829Z 16016KT 20/19 A3002 RMK A01 T02040189  RH  091%=      5-min Rain = 0
KAI1 261830Z 16016KT 20/19 A3002 RMK A01 T02040189  RH  091%=      5-min Rain = 0
KAI1 261831Z 16017KT 21/19 A3001 RMK A01 T02050189  RH  091%=      5-min Rain = 0
KAI1 261832Z 15016KT 21/19 A3002 RMK A01 T02050189  RH  091%=      5-min Rain = 0
KAI1 261833Z 16016KT 21/19 A3002 RMK A01 T02050190  RH  091%=      5-min Rain = 0
KAI1 261834Z 16016KT 21/19 A3002 RMK A01 T02050190  RH  091%=      5-min Rain = 0
KAI1 261835Z 16013KT 21/19 A3002 RMK A01 T02060191  RH  091%=      5-min Rain = 0
KAI1 261836Z 16014KT 21/19 A3002 RMK A01 T02060192  RH  092%=      5-min Rain = 0
KAI1 261837Z 16015KT 21/19 A3001 RMK A01 T02060191  RH  091%=      5-min Rain = 0
KAI1 261838Z 16014KT 21/19 A3001 RMK A01 T02060190  RH  091%=      5-min Rain = 0
KAI1 261839Z 16014KT 21/19 A3002 RMK A01 T02060191  RH  091%=      5-min Rain = 0
KAI1 261840Z 16016KT 21/19 A3001 RMK A01 T02060190  RH  090%=      5-min Rain = 0
KAI1 261841Z 16016KT 21/19 A3001 RMK A01 T02060190  RH  090%=      5-min Rain = 0
KAI1 261842Z 17014KT 21/19 A3002 RMK A01 T02060190  RH  090%=      5-min Rain = 0
KAI1 261843Z 17015KT 21/19 A3002 RMK A01 T02070191  RH  091%=      5-min Rain = 0
KAI1 261844Z 17017KT 21/19 A3002 RMK A01 T02070190  RH  090%=      5-min Rain = 0
KAI1 261845Z 17015KT 21/19 A3002 RMK A01 T02070191  RH  090%=      5-min Rain = 0
KAI1 261846Z 16016KT 21/19 A3002 RMK A01 T02070191  RH  090%=      5-min Rain = 0
KAI1 261847Z 17015KT 21/19 A3002 RMK A01 T02070191  RH  091%=      5-min Rain = 0
KAI1 261848Z 17017KT 21/19 A3002 RMK A01 T02070190  RH  090%=      5-min Rain = 0
KAI1 261849Z 16017KT 21/19 A3002 RMK A01 T02080189  RH  089%=      5-min Rain = 0
KAI1 261850Z 16017KT 21/19 A3002 RMK A01 T02080190  RH  089%=      5-min Rain = 0
KAI1 261851Z 17017KT 21/19 A3002 RMK A01 T02080190  RH  089%=      5-min Rain = 0
KAI1 261852Z 17017KT 21/19 A3002 RMK A01 T02080189  RH  089%=      5-min Rain = 0
KAI1 261853Z 17017KT 21/19 A3002 RMK A01 T02080189  RH  089%=      5-min Rain = 0
KAI1 261854Z 17018KT 21/19 A3002 RMK A01 T02080190  RH  089%=      5-min Rain = 0
KAI1 261855Z 17016KT 21/19 A3002 RMK A01 T02080189  RH  089%=      5-min Rain = 0
KAI1 261856Z 17016KT 21/19 A3002 RMK A01 T02080190  RH  089%=      5-min Rain = 0
KAI1 261857Z 17015KT 21/19 A3002 RMK A01 T02080190  RH  090%=      5-min Rain = 0
KAI1 261858Z 16015KT 21/19 A3002 RMK A01 T02080190  RH  090%=      5-min Rain = 0
KAI1 261859Z 16014KT 21/19 A3003 RMK A01 T02080192  RH  090%=      5-min Rain = 0
KAI1 261900Z 17015KT 21/19 A3003 RMK A01 T02080191  RH  090%=      5-min Rain = 0
KAI1 261901Z 17016KT 21/19 A3003 RMK A01 T02080190  RH  090%=      5-min Rain = 0
KAI1 261902Z 17015KT 21/19 A3003 RMK A01 T02080190  RH  090%=      5-min Rain = 0
KAI1 261903Z 18016KT 21/19 A3003 RMK A01 T02080191  RH  090%=      5-min Rain = 0
KAI1 261904Z 18017KT 21/19 A3003 RMK A01 T02080190  RH  090%=      5-min Rain = 0
KAI1 261905Z 17018KT 21/19 A3003 RMK A01 T02080190  RH  089%=      5-min Rain = 0
KAI1 261906Z 17017KT 21/19 A3003 RMK A01 T02080190  RH  090%=      5-min Rain = 0
KAI1 261907Z 18016KT 21/19 A3003 RMK A01 T02080191  RH  090%=      5-min Rain = 0
KAI1 261908Z 18017KT 21/19 A3003 RMK A01 T02080191  RH  090%=      5-min Rain = 0
KAI1 261909Z 18015KT 21/19 A3003 RMK A01 T02080190  RH  089%=      5-min Rain = 0
KAI1 261910Z 18015KT 21/19 A3003 RMK A01 T02090191  RH  090%=      5-min Rain = 0
KAI1 261911Z 18015KT 21/19 A3003 RMK A01 T02090191  RH  090%=      5-min Rain = 0
KAI1 261912Z 18016KT 21/19 A3003 RMK A01 T02090192  RH  090%=      5-min Rain = 0
KAI1 261913Z 18016KT 21/19 A3003 RMK A01 T02090191  RH  089%=      5-min Rain = 0
KAI1 261914Z 18016KT 21/19 A3003 RMK A01 T02090190  RH  089%=      5-min Rain = 0
KAI1 261915Z 18015KT 21/19 A3003 RMK A01 T02090190  RH  089%=      5-min Rain = 0
KAI1 261916Z 18017KT 21/19 A3003 RMK A01 T02090190  RH  089%=      5-min Rain = 0
KAI1 261917Z 17016KT 21/19 A3003 RMK A01 T02090190  RH  089%=      5-min Rain = 0
KAI1 261918Z 17016KT 21/19 A3003 RMK A01 T02090191  RH  089%=      5-min Rain = 0
KAI1 261919Z 18016KT 21/19 A3003 RMK A01 T02090190  RH  089%=      5-min Rain = 0
KAI1 261920Z 18015KT 21/19 A3003 RMK A01 T02090190  RH  089%=      5-min Rain = 0
KAI1 261921Z 18014KT 21/19 A3003 RMK A01 T02090190  RH  089%=      5-min Rain = 0
KAI1 261922Z 17013KT 21/19 A3003 RMK A01 T02090191  RH  090%=      5-min Rain = 0
KAI1 261923Z 17013KT 21/19 A3003 RMK A01 T02090192  RH  090%=      5-min Rain = 0
KAI1 261924Z 16014KT 21/19 A3004 RMK A01 T02080192  RH  090%=      5-min Rain = 0
KAI1 261925Z 17013KT 21/19 A3004 RMK A01 T02080192  RH  090%=      5-min Rain = 0
KAI1 261926Z 16013KT 21/19 A3004 RMK A01 T02070191  RH  091%=      5-min Rain = 0
KAI1 261927Z 17013KT 21/19 A3004 RMK A01 T02070192  RH  091%=      5-min Rain = 0
KAI1 261928Z 16012KT 21/19 A3004 RMK A01 T02070192  RH  091%=      5-min Rain = 0
KAI1 261929Z 16012KT 21/19 A3004 RMK A01 T02070192  RH  091%=      5-min Rain = 0
KAI1 261930Z 17012KT 21/19 A3004 RMK A01 T02070192  RH  091%=      5-min Rain = 0
KAI1 261931Z 16012KT 21/19 A3004 RMK A01 T02070192  RH  091%=      5-min Rain = 0
KAI1 261932Z 17013KT 21/19 A3004 RMK A01 T02070192  RH  091%=      5-min Rain = 0
KAI1 261933Z 16011KT 21/19 A3004 RMK A01 T02070192  RH  091%=      5-min Rain = 0
KAI1 261934Z 16011KT 21/19 A3004 RMK A01 T02070193  RH  092%=      5-min Rain = 0
KAI1 261935Z 16011KT 21/19 A3004 RMK A01 T02070193  RH  092%=      5-min Rain = 0
KAI1 261936Z 16012KT 21/19 A3004 RMK A01 T02070193  RH  092%=      5-min Rain = 0
KAI1 261937Z 17011KT 21/19 A3004 RMK A01 T02070192  RH  091%=      5-min Rain = 0
KAI1 261938Z 17011KT 21/19 A3004 RMK A01 T02070192  RH  091%=      5-min Rain = 0
KAI1 261939Z 16011KT 21/19 A3004 RMK A01 T02070193  RH  092%=      5-min Rain = 0
KAI1 261940Z 16012KT 21/19 A3003 RMK A01 T02070192  RH  091%=      5-min Rain = 0
KAI1 261941Z 16014KT 21/19 A3003 RMK A01 T02070192  RH  091%=      5-min Rain = 0
KAI1 261942Z 16015KT 21/19 A3003 RMK A01 T02070192  RH  091%=      5-min Rain = 0
KAI1 261943Z 17014KT 21/19 A3003 RMK A01 T02070192  RH  091%=      5-min Rain = 0
KAI1 261944Z 16015KT 21/19 A3003 RMK A01 T02070192  RH  091%=      5-min Rain = 0
KAI1 261945Z 16015KT 21/19 A3003 RMK A01 T02070191  RH  091%=      5-min Rain = 0
KAI1 261946Z 16014KT 21/19 A3003 RMK A01 T02070193  RH  091%=      5-min Rain = 0
KAI1 261947Z 16014KT 21/19 A3003 RMK A01 T02070193  RH  091%=      5-min Rain = 0
KAI1 261948Z 16014KT 21/19 A3003 RMK A01 T02070193  RH  091%=      5-min Rain = 0
KAI1 261949Z 15015KT 21/19 A3003 RMK A01 T02070193  RH  091%=      5-min Rain = 0
KAI1 261950Z 15014KT 21/19 A3003 RMK A01 T02080194  RH  092%=      5-min Rain = 0
KAI1 261951Z 15016KT 21/20 A3002 RMK A01 T02090195  RH  091%=      5-min Rain = 0
KAI1 261952Z 16016KT 21/20 A3002 RMK A01 T02100195  RH  091%=      5-min Rain = 0
KAI1 261953Z 16015KT 21/19 A3002 RMK A01 T02100194  RH  091%=      5-min Rain = 0
KAI1 261954Z 16015KT 21/20 A3002 RMK A01 T02100195  RH  091%=      5-min Rain = 0
KAI1 261955Z 16016KT 21/19 A3002 RMK A01 T02100194  RH  090%=      5-min Rain = 0
KAI1 261956Z 16017KT 21/19 A3002 RMK A01 T02100193  RH  090%=      5-min Rain = 0
KAI1 261957Z 16016KT 21/19 A3002 RMK A01 T02100193  RH  090%=      5-min Rain = 0
KAI1 261958Z 16014KT 21/19 A3002 RMK A01 T02110194  RH  090%=      5-min Rain = 0
KAI1 261959Z 16014KT 21/20 A3002 RMK A01 T02110195  RH  091%=      5-min Rain = 0
KAI1 262000Z 16015KT 21/20 A3002 RMK A01 T02120196  RH  091%=      5-min Rain = 0
KAI1 262001Z 16014KT 21/20 A3002 RMK A01 T02120197  RH  091%=      5-min Rain = 0
KAI1 262002Z 16014KT 21/20 A3002 RMK A01 T02130196  RH  090%=      5-min Rain = 0
KAI1 262003Z 16015KT 21/20 A3002 RMK A01 T02140196  RH  090%=      5-min Rain = 0
KAI1 262004Z 16016KT 21/20 A3002 RMK A01 T02140197  RH  090%=      5-min Rain = 0
KAI1 262005Z 16017KT 22/20 A3002 RMK A01 T02150196  RH  089%=      5-min Rain = 0
KAI1 262006Z 16015KT 22/20 A3002 RMK A01 T02160196  RH  089%=      5-min Rain = 0
KAI1 262007Z 16017KT 22/20 A3002 RMK A01 T02160196  RH  088%=      5-min Rain = 0
KAI1 262008Z 16017KT 22/20 A3002 RMK A01 T02170196  RH  088%=      5-min Rain = 0
KAI1 262009Z 16018KT 22/20 A3002 RMK A01 T02170196  RH  088%=      5-min Rain = 0
KAI1 262010Z 16017KT 22/20 A3002 RMK A01 T02170195  RH  087%=      5-min Rain = 0
KAI1 262011Z 16016KT 22/20 A3002 RMK A01 T02180198  RH  089%=      5-min Rain = 0
KAI1 262012Z 15017KT 22/20 A3002 RMK A01 T02190199  RH  088%=      5-min Rain = 0
KAI1 262013Z 16016KT 22/20 A3001 RMK A01 T02200198  RH  087%=      5-min Rain = 0
KAI1 262014Z 16018KT 22/20 A3001 RMK A01 T02200198  RH  087%=      5-min Rain = 0
KAI1 262015Z 16017KT 22/20 A3001 RMK A01 T02210197  RH  086%=      5-min Rain = 0
KAI1 262016Z 16016KT 22/20 A3001 RMK A01 T02210199  RH  087%=      5-min Rain = 0
KAI1 262017Z 16018KT 22/20 A3001 RMK A01 T02210198  RH  087%=      5-min Rain = 0
KAI1 262018Z 16017KT 22/20 A3001 RMK A01 T02220198  RH  086%=      5-min Rain = 0
KAI1 262019Z 16016KT 22/20 A3001 RMK A01 T02210196  RH  085%=      5-min Rain = 0
KAI1 262020Z 16016KT 22/20 A3001 RMK A01 T02220198  RH  087%=      5-min Rain = 0
KAI1 262021Z 16017KT 22/20 A3001 RMK A01 T02210197  RH  086%=      5-min Rain = 0
KAI1 262022Z 16016KT 22/20 A3001 RMK A01 T02220198  RH  086%=      5-min Rain = 0
KAI1 262023Z 15017KT 22/20 A3001 RMK A01 T02210198  RH  086%=      5-min Rain = 0
KAI1 262024Z 15018KT 22/20 A3001 RMK A01 T02210197  RH  086%=      5-min Rain = 0
KAI1 262025Z 16016KT 22/20 A3001 RMK A01 T02210198  RH  087%=      5-min Rain = 0
KAI1 262026Z 16014KT 22/20 A3001 RMK A01 T02210199  RH  087%=      5-min Rain = 0
KAI1 262027Z 16018KT 22/20 A3001 RMK A01 T02210196  RH  086%=      5-min Rain = 0
KAI1 262028Z 17017KT 22/20 A3001 RMK A01 T02210195  RH  085%=      5-min Rain = 0
KAI1 262029Z 17018KT 22/20 A3001 RMK A01 T02210195  RH  085%=      5-min Rain = 0
KAI1 262030Z 16017KT 22/20 A3001 RMK A01 T02200195  RH  085%=      5-min Rain = 0
KAI1 262031Z 16017KT 22/20 A3001 RMK A01 T02210195  RH  086%=      5-min Rain = 0
KAI1 262032Z 16016KT 22/20 A3001 RMK A01 T02210195  RH  086%=      5-min Rain = 0
KAI1 262033Z 16019KT 22/20 A3001 RMK A01 T02200196  RH  086%=      5-min Rain = 0
KAI1 262034Z 16018KT 22/20 A3001 RMK A01 T02210195  RH  085%=      5-min Rain = 0
KAI1 262035Z 16016KT 22/19 A3001 RMK A01 T02200194  RH  085%=      5-min Rain = 0
KAI1 262036Z 15017KT 22/20 A3001 RMK A01 T02200197  RH  087%=      5-min Rain = 0
KAI1 262037Z 15020KT 22/20 A3001 RMK A01 T02200196  RH  086%=      5-min Rain = 0
KAI1 262038Z 15018KT 22/20 A3001 RMK A01 T02200195  RH  086%=      5-min Rain = 0
KAI1 262039Z 16017KT 22/20 A3001 RMK A01 T02200195  RH  086%=      5-min Rain = 0
KAI1 262040Z 16017KT 22/20 A3001 RMK A01 T02200196  RH  086%=      5-min Rain = 0
KAI1 262041Z 16017KT 22/19 A3001 RMK A01 T02190194  RH  085%=      5-min Rain = 0
KAI1 262042Z 17014KT 22/20 A3001 RMK A01 T02200195  RH  086%=      5-min Rain = 0
KAI1 262043Z 16016KT 22/20 A3001 RMK A01 T02200196  RH  086%=      5-min Rain = 0
KAI1 262044Z 16019KT 22/19 A3001 RMK A01 T02200194  RH  085%=      5-min Rain = 0
KAI1 262045Z 16018KT 22/19 A3001 RMK A01 T02190193  RH  085%=      5-min Rain = 0
KAI1 262046Z 16018KT 22/19 A30 RMK A01 T02190193  RH  085%=      5-min Rain = 0
KAI1 262047Z 16017KT 22/19 A30 RMK A01 T02190194  RH  086%=      5-min Rain = 0
KAI1 262048Z 16015KT 22/19 A30 RMK A01 T02190194  RH  086%=      5-min Rain = 0
KAI1 262049Z 16014KT 22/20 A30 RMK A01 T02190197  RH  087%=      5-min Rain = 0
KAI1 262050Z 15015KT 22/20 A30 RMK A01 T02190197  RH  087%=      5-min Rain = 0
KAI1 262051Z 15017KT 22/20 A30 RMK A01 T02190195  RH  086%=      5-min Rain = 0
KAI1 262052Z 16015KT 22/20 A30 RMK A01 T02190195  RH  086%=      5-min Rain = 0
KAI1 262053Z 15016KT 22/20 A30 RMK A01 T02200197  RH  087%=      5-min Rain = 0
KAI1 262054Z 15018KT 22/20 A2999 RMK A01 T02200195  RH  086%=      5-min Rain = 0
KAI1 262055Z 15017KT 22/20 A2999 RMK A01 T02200195  RH  086%=      5-min Rain = 0
KAI1 262056Z 15017KT 22/20 A2999 RMK A01 T02190195  RH  086%=      5-min Rain = 0
KAI1 262057Z 15016KT 22/20 A2999 RMK A01 T02200196  RH  086%=      5-min Rain = 0
KAI1 262058Z 15018KT 22/20 A2999 RMK A01 T02200196  RH  086%=      5-min Rain = 0
KAI1 262059Z 16018KT 22/20 A2999 RMK A01 T02200196  RH  086%=      5-min Rain = 0
KAI1 262100Z 15017KT 22/20 A2999 RMK A01 T02200195  RH  086%=      5-min Rain = 0
KAI1 262101Z 16019KT 22/20 A2999 RMK A01 T02210196  RH  086%=      5-min Rain = 0
KAI1 262102Z 15019KT 22/20 A2999 RMK A01 T02210195  RH  085%=      5-min Rain = 0
KAI1 262103Z 16018KT 22/19 A2999 RMK A01 T02210194  RH  085%=      5-min Rain = 0
KAI1 262104Z 16015KT 22/20 A2999 RMK A01 T02220197  RH  086%=      5-min Rain = 0
KAI1 262105Z 15018KT 22/20 A2999 RMK A01 T02220199  RH  086%=      5-min Rain = 0
KAI1 262106Z 15019KT 22/20 A2998 RMK A01 T02220196  RH  085%=      5-min Rain = 0
KAI1 262107Z 15020KT 22/20 A2998 RMK A01 T02220196  RH  085%=      5-min Rain = 0
KAI1 262108Z 16020KT 22/20 A2999 RMK A01 T02220196  RH  085%=      5-min Rain = 0
KAI1 262109Z 16020KT 22/20 A2998 RMK A01 T02220195  RH  085%=      5-min Rain = 0
KAI1 262110Z 16019KT 22/19 A2998 RMK A01 T02210194  RH  085%=      5-min Rain = 0
KAI1 262111Z 15018KT 22/20 A2998 RMK A01 T02210196  RH  086%=      5-min Rain = 0
KAI1 262112Z 16020KT 22/20 A2998 RMK A01 T02210196  RH  086%=      5-min Rain = 0
KAI1 262113Z 15019KT 22/20 A2998 RMK A01 T02200196  RH  086%=      5-min Rain = 0
KAI1 262114Z 15020KT 22/20 A2998 RMK A01 T02200196  RH  086%=      5-min Rain = 0
KAI1 262115Z 15020KT 22/20 A2998 RMK A01 T02190195  RH  086%=      5-min Rain = 0
KAI1 262116Z 15019KT 22/20 A2998 RMK A01 T02190195  RH  086%=      5-min Rain = 0
KAI1 262117Z 15019KT 22/20 A2997 RMK A01 T02180195  RH  087%=      5-min Rain = 0
KAI1 262118Z 15019KT 22/20 A2997 RMK A01 T02180195  RH  087%=      5-min Rain = 0
KAI1 262119Z 15017KT 22/20 A2997 RMK A01 T02180196  RH  088%=      5-min Rain = 0
KAI1 262120Z 14020KT 22/20 A2998 RMK A01 T02170196  RH  088%=      5-min Rain = 0
KAI1 262121Z 15017KT 22/20 A2998 RMK A01 T02170197  RH  088%=      5-min Rain = 0
KAI1 262122Z 15016KT 22/20 A2998 RMK A01 T02160197  RH  089%=      5-min Rain = 0
KAI1 262123Z 15014KT 22/20 A2998 RMK A01 T02160198  RH  089%=      5-min Rain = 0
KAI1 262124Z 15017KT 22/20 A2998 RMK A01 T02160198  RH  090%=      5-min Rain = 0
KAI1 262125Z 15019KT 22/20 A2998 RMK A01 T02160196  RH  089%=      5-min Rain = 0
KAI1 262126Z 15020KT 22/20 A2998 RMK A01 T02150196  RH  089%=      5-min Rain = 0
KAI1 262127Z 15019KT 21/20 A2998 RMK A01 T02140195  RH  089%=      5-min Rain = 0
KAI1 262128Z 15017KT 21/20 A2999 RMK A01 T02140196  RH  089%=      5-min Rain = 0
KAI1 262129Z 15016KT 21/20 A2999 RMK A01 T02140197  RH  090%=      5-min Rain = 0
KAI1 262130Z 15018KT 21/20 A2998 RMK A01 T02140196  RH  090%=      5-min Rain = 0
KAI1 262131Z 15018KT 21/20 A2997 RMK A01 T02140196  RH  089%=      5-min Rain = 0
KAI1 262132Z 14017KT 21/20 A2997 RMK A01 T02130195  RH  089%=      5-min Rain = 0
KAI1 262133Z 14018KT 21/19 A2996 RMK A01 T02130194  RH  089%=      5-min Rain = 0
KAI1 262134Z 15017KT 21/19 A2996 RMK A01 T02130194  RH  089%=      5-min Rain = 0
KAI1 262135Z 14017KT 21/20 A2996 RMK A01 T02130195  RH  089%=      5-min Rain = 0
KAI1 262136Z 15017KT 21/20 A2997 RMK A01 T02130195  RH  089%=      5-min Rain = 0
KAI1 262137Z 15017KT 21/20 A2997 RMK A01 T02130195  RH  089%=      5-min Rain = 0
KAI1 262138Z 15019KT 21/19 A2997 RMK A01 T02130194  RH  089%=      5-min Rain = 0
KAI1 262139Z 15017KT 21/20 A2997 RMK A01 T02130195  RH  089%=      5-min Rain = 0
KAI1 262140Z 15019KT 21/20 A2997 RMK A01 T02130195  RH  089%=      5-min Rain = 0
KAI1 262141Z 15019KT 21/19 A2997 RMK A01 T02130194  RH  089%=      5-min Rain = 0
KAI1 262142Z 15018KT 21/20 A2997 RMK A01 T02130195  RH  089%=      5-min Rain = 0
KAI1 262143Z 14017KT 21/20 A2997 RMK A01 T02130195  RH  089%=      5-min Rain = 0
KAI1 262144Z 15018KT 21/20 A2996 RMK A01 T02130195  RH  090%=      5-min Rain = 0
KAI1 262145Z 14016KT 21/20 A2996 RMK A01 T02130195  RH  090%=      5-min Rain = 0
KAI1 262146Z 15015KT 21/20 A2996 RMK A01 T02130196  RH  090%=      5-min Rain = 0
KAI1 262147Z 14017KT 21/20 A2996 RMK A01 T02130196  RH  090%=      5-min Rain = 0
KAI1 262148Z 14018KT 21/20 A2996 RMK A01 T02130196  RH  090%=      5-min Rain = 0
KAI1 262149Z 14020KT 21/20 A2996 RMK A01 T02130196  RH  090%=      5-min Rain = 0
KAI1 262150Z 14019G24KT 21/20 A2995 RMK A01 T02130195  RH  090%=      5-min Rain = 0
KAI1 262151Z 14020KT 21/20 A2995 RMK A01 T02130196  RH  090%=      5-min Rain = 0
KAI1 262152Z 14020KT 21/20 A2995 RMK A01 T02130195  RH  090%=      5-min Rain = 0
KAI1 262153Z 14019KT 21/20 A2995 RMK A01 T02130196  RH  090%=      5-min Rain = 0
KAI1 262154Z 14019KT 21/20 A2994 RMK A01 T02130196  RH  090%=      5-min Rain = 0
KAI1 262155Z 13018KT 21/20 A2994 RMK A01 T02130197  RH  090%=      5-min Rain = 0
KAI1 262156Z 14019KT 21/20 A2994 RMK A01 T02140197  RH  090%=      5-min Rain = 0
KAI1 262157Z 14020KT 21/20 A2994 RMK A01 T02140196  RH  090%=      5-min Rain = 0
KAI1 262158Z 14020KT 21/20 A2994 RMK A01 T02140195  RH  089%=      5-min Rain = 0
KAI1 262159Z 15018KT 21/20 A2995 RMK A01 T02140196  RH  089%=      5-min Rain = 0
KAI1 262200Z 15018KT 21/20 A2995 RMK A01 T02140197  RH  090%=      5-min Rain = 0
KAI1 262201Z 15018KT 22/20 A2995 RMK A01 T02150198  RH  090%=      5-min Rain = 0
KAI1 262202Z 15019KT 22/20 A2995 RMK A01 T02150198  RH  090%=      5-min Rain = 0
KAI1 262203Z 15022KT 22/20 A2995 RMK A01 T02160197  RH  089%=      5-min Rain = 0
KAI1 262204Z 15021KT 22/20 A2995 RMK A01 T02160196  RH  088%=      5-min Rain = 0
KAI1 262205Z 15021KT 22/20 A2994 RMK A01 T02160196  RH  089%=      5-min Rain = 0
KAI1 262206Z 15021KT 22/20 A2994 RMK A01 T02160196  RH  089%=      5-min Rain = 0
KAI1 262207Z 15019KT 22/20 A2994 RMK A01 T02160197  RH  089%=      5-min Rain = 0
KAI1 262208Z 15019KT 22/20 A2994 RMK A01 T02160197  RH  089%=      5-min Rain = 0
KAI1 262209Z 14021KT 22/20 A2994 RMK A01 T02170197  RH  089%=      5-min Rain = 0
KAI1 262210Z 15021KT 22/20 A2994 RMK A01 T02170196  RH  088%=      5-min Rain = 0
KAI1 262211Z 14021KT 22/20 A2994 RMK A01 T02160196  RH  088%=      5-min Rain = 0
KAI1 262212Z 15019KT 22/20 A2994 RMK A01 T02170196  RH  088%=      5-min Rain = 0
KAI1 262213Z 14018KT 22/20 A2994 RMK A01 T02160198  RH  089%=      5-min Rain = 0
KAI1 262214Z 14018KT 22/20 A2994 RMK A01 T02160197  RH  089%=      5-min Rain = 0
KAI1 262215Z 15018KT 22/20 A2994 RMK A01 T02160198  RH  089%=      5-min Rain = 0
KAI1 262216Z 15018KT 22/20 A2995 RMK A01 T02160199  RH  090%=      5-min Rain = 0
KAI1 262217Z 15022KT 22/20 A2995 RMK A01 T02170199  RH  089%=      5-min Rain = 0
KAI1 262218Z 15022KT 22/20 A2995 RMK A01 T02170197  RH  089%=      5-min Rain = 0
KAI1 262219Z 15022KT 22/20 A2995 RMK A01 T02170198  RH  089%=      5-min Rain = 0
KAI1 262220Z 15020KT 22/20 A2995 RMK A01 T02170198  RH  089%=      5-min Rain = 0
KAI1 262221Z 15023KT 22/20 A2995 RMK A01 T02170198  RH  089%=      5-min Rain = 0
KAI1 262222Z 15021KT 22/20 A2995 RMK A01 T02170197  RH  089%=      5-min Rain = 0
KAI1 262223Z 15018KT 22/20 A2995 RMK A01 T02160198  RH  089%=      5-min Rain = 0
KAI1 262224Z 15020KT 22/20 A2995 RMK A01 T02160199  RH  090%=      5-min Rain = 0
KAI1 262225Z 15021G26KT 22/20 A2995 RMK A01 T02170198  RH  089%=      5-min Rain = 0
KAI1 262226Z 15022G27KT 22/20 A2995 RMK A01 T02160197  RH  089%=      5-min Rain = 0
KAI1 262227Z 15023KT 22/20 A2995 RMK A01 T02170197  RH  089%=      5-min Rain = 0
KAI1 262228Z 15021KT 22/20 A2994 RMK A01 T02160198  RH  089%=      5-min Rain = 0
KAI1 262229Z 15021KT 22/20 A2994 RMK A01 T02160198  RH  089%=      5-min Rain = 0
KAI1 262230Z 15023KT 22/20 A2995 RMK A01 T02170198  RH  089%=      5-min Rain = 0
KAI1 262231Z 15018KT 22/20 A2995 RMK A01 T02160198  RH  089%=      5-min Rain = 0
KAI1 262232Z 14021KT 22/20 A2994 RMK A01 T02160198  RH  089%=      5-min Rain = 0
KAI1 262233Z 14020KT 22/20 A2994 RMK A01 T02160198  RH  089%=      5-min Rain = 0
KAI1 262234Z 14021KT 22/20 A2994 RMK A01 T02160197  RH  089%=      5-min Rain = 0
KAI1 262235Z 14022KT 22/20 A2993 RMK A01 T02160197  RH  089%=      5-min Rain = 0
KAI1 262236Z 14022KT 22/20 A2993 RMK A01 T02160197  RH  089%=      5-min Rain = 0
KAI1 262237Z 14020KT 22/20 A2993 RMK A01 T02150197  RH  089%=      5-min Rain = 0
KAI1 262238Z 14018KT 22/20 A2993 RMK A01 T02160198  RH  089%=      5-min Rain = 0
KAI1 262239Z 14019KT 22/20 A2993 RMK A01 T02160198  RH  089%=      5-min Rain = 0
KAI1 262240Z 14022KT 22/20 A2993 RMK A01 T02150197  RH  090%=      5-min Rain = 0
KAI1 262241Z 14021KT 22/20 A2993 RMK A01 T02150197  RH  089%=      5-min Rain = 0
KAI1 262242Z 14016KT 21/20 A2993 RMK A01 T02140198  RH  090%=      5-min Rain = 0
KAI1 262243Z 14021KT 22/20 A2993 RMK A01 T02150198  RH  090%=      5-min Rain = 0
KAI1 262244Z 14019KT 21/20 A2993 RMK A01 T02140197  RH  090%=      5-min Rain = 0
KAI1 262245Z 14019KT 21/20 A2993 RMK A01 T02140198  RH  090%=      5-min Rain = 0
KAI1 262246Z 15019KT 21/20 A2993 RMK A01 T02140197  RH  090%=      5-min Rain = 0
KAI1 262247Z 14016KT 21/20 A2993 RMK A01 T02140198  RH  091%=      5-min Rain = 0
KAI1 262248Z 14017KT 21/20 A2993 RMK A01 T02140199  RH  091%=      5-min Rain = 0
KAI1 262249Z 14016KT 21/20 A2993 RMK A01 T02130198  RH  091%=      5-min Rain = 0
KAI1 262250Z 15020KT 21/20 A2993 RMK A01 T02140198  RH  091%=      5-min Rain = 0
KAI1 262251Z 15019KT 21/20 A2993 RMK A01 T02140197  RH  090%=      5-min Rain = 0
KAI1 262252Z 15020KT 21/20 A2994 RMK A01 T02140197  RH  090%=      5-min Rain = 0
KAI1 262253Z 15019KT 21/20 A2994 RMK A01 T02140197  RH  090%=      5-min Rain = 0
KAI1 262254Z 14016KT 21/20 A2993 RMK A01 T02140198  RH  091%=      5-min Rain = 0
KAI1 262255Z 15021KT 21/20 A2993 RMK A01 T02140198  RH  090%=      5-min Rain = 0
KAI1 262256Z 15023KT 21/20 A2993 RMK A01 T02140197  RH  090%=      5-min Rain = 0
KAI1 262257Z 15019KT 22/20 A2993 RMK A01 T02150198  RH  090%=      5-min Rain = 0
KAI1 262258Z 15020KT 22/20 A2993 RMK A01 T02160198  RH  090%=      5-min Rain = 0
KAI1 262259Z 15020KT 22/20 A2993 RMK A01 T02160198  RH  090%=      5-min Rain = 0
KAI1 262300Z 15022KT 22/20 A2993 RMK A01 T02170199  RH  090%=      5-min Rain = 0
KAI1 262301Z 15018KT 22/20 A2993 RMK A01 T02180200  RH  089%=      5-min Rain = 0
KAI1 262302Z 14020G27KT 22/20 A2992 RMK A01 T02180201  RH  090%=      5-min Rain = 0
KAI1 262303Z 14022KT 22/20 A2992 RMK A01 T02190199  RH  089%=      5-min Rain = 0
KAI1 262304Z 14023KT 22/20 A2992 RMK A01 T02190199  RH  089%=      5-min Rain = 0
KAI1 262305Z 14022KT 22/20 A2992 RMK A01 T02190199  RH  088%=      5-min Rain = 0
KAI1 262306Z 14023KT 22/20 A2992 RMK A01 T02190199  RH  088%=      5-min Rain = 0
KAI1 262307Z 14023KT 22/20 A2991 RMK A01 T02190199  RH  088%=      5-min Rain = 0
KAI1 262308Z 14022KT 22/20 A2991 RMK A01 T02200200  RH  088%=      5-min Rain = 0
KAI1 262309Z 14023KT 22/20 A2991 RMK A01 T02200199  RH  088%=      5-min Rain = 0
KAI1 262310Z 13021KT 22/20 A2991 RMK A01 T02200199  RH  088%=      5-min Rain = 0
KAI1 262311Z 14025KT 22/20 A2991 RMK A01 T02200200  RH  088%=      5-min Rain = 0
KAI1 262312Z 14022KT 22/20 A2991 RMK A01 T02200199  RH  088%=      5-min Rain = 0
KAI1 262313Z 14026KT 22/20 A2991 RMK A01 T02200199  RH  088%=      5-min Rain = 0
KAI1 262314Z 14023KT 22/20 A299 RMK A01 T02200198  RH  088%=      5-min Rain = 0
KAI1 262315Z 14022KT 22/20 A2991 RMK A01 T02200199  RH  088%=      5-min Rain = 0
KAI1 262316Z 14021KT 22/20 A2991 RMK A01 T02200200  RH  088%=      5-min Rain = 0
KAI1 262317Z 14022KT 22/20 A299 RMK A01 T02210200  RH  088%=      5-min Rain = 0
KAI1 262318Z 14021G26KT 22/20 A299 RMK A01 T02220200  RH  087%=      5-min Rain = 0
KAI1 262319Z 14018KT 22/20 A2991 RMK A01 T02230203  RH  088%=      5-min Rain = 0
KAI1 262320Z 13022G27KT 23/20 A299 RMK A01 T02250202  RH  087%=      5-min Rain = 0
KAI1 262321Z 14022G27KT 23/20 A299 RMK A01 T02250202  RH  087%=      5-min Rain = 0
KAI1 262322Z 14023KT 23/20 A299 RMK A01 T02260200  RH  085%=      5-min Rain = 0
KAI1 262323Z 13020KT 23/20 A2989 RMK A01 T02260200  RH  086%=      5-min Rain = 0
KAI1 262324Z 14022KT 23/20 A2989 RMK A01 T02250200  RH  085%=      5-min Rain = 0
KAI1 262325Z 14017G23KT 23/20 A299 RMK A01 T02260202  RH  086%=      5-min Rain = 0
KAI1 262326Z 14021KT 23/20 A299 RMK A01 T02260201  RH  086%=      5-min Rain = 0
KAI1 262327Z 14019KT 23/20 A299 RMK A01 T02270202  RH  086%=      5-min Rain = 0
KAI1 262328Z 14017KT 23/20 A299 RMK A01 T02270202  RH  086%=      5-min Rain = 0
KAI1 262329Z 14018KT 23/20 A299 RMK A01 T02280203  RH  086%=      5-min Rain = 0
KAI1 262330Z 14020KT 23/20 A2991 RMK A01 T02280201  RH  085%=      5-min Rain = 0
KAI1 262331Z 14021KT 23/20 A299 RMK A01 T02280201  RH  085%=      5-min Rain = 0
KAI1 262332Z 14021KT 23/20 A2991 RMK A01 T02280201  RH  085%=      5-min Rain = 0
KAI1 262333Z 14022KT 23/20 A299 RMK A01 T02280200  RH  084%=      5-min Rain = 0
KAI1 262334Z 14018G23KT 23/20 A299 RMK A01 T02270201  RH  085%=      5-min Rain = 0
KAI1 262335Z 14018KT 23/20 A299 RMK A01 T02280202  RH  086%=      5-min Rain = 0
KAI1 262336Z 14024KT 23/20 A299 RMK A01 T02280200  RH  084%=      5-min Rain = 0
KAI1 262337Z 14021KT 23/20 A299 RMK A01 T02280200  RH  084%=      5-min Rain = 0
KAI1 262338Z 14021KT 23/20 A299 RMK A01 T02280201  RH  084%=      5-min Rain = 0
KAI1 262339Z 14023G28KT 23/20 A299 RMK A01 T02280200  RH  084%=      5-min Rain = 0
KAI1 262340Z 14024KT 23/20 A299 RMK A01 T02280199  RH  084%=      5-min Rain = 0
KAI1 262341Z 14024KT 23/20 A299 RMK A01 T02280199  RH  084%=      5-min Rain = 0
KAI1 262342Z 15022KT 23/20 A299 RMK A01 T02280199  RH  084%=      5-min Rain = 0
KAI1 262343Z 15024KT 23/20 A299 RMK A01 T02270199  RH  084%=      5-min Rain = 0
KAI1 262344Z 15020KT 23/20 A299 RMK A01 T02270200  RH  085%=      5-min Rain = 0
KAI1 262345Z 14020KT 23/20 A2991 RMK A01 T02270201  RH  085%=      5-min Rain = 0
KAI1 262346Z 15020KT 23/20 A2991 RMK A01 T02270200  RH  085%=      5-min Rain = 0
KAI1 262347Z 15021G26KT 23/20 A299 RMK A01 T02270201  RH  085%=      5-min Rain = 0
KAI1 262348Z 14024KT 23/20 A299 RMK A01 T02270200  RH  085%=      5-min Rain = 0
KAI1 262349Z 15024KT 23/20 A299 RMK A01 T02260199  RH  084%=      5-min Rain = 0
KAI1 262350Z 15022KT 23/20 A299 RMK A01 T02260199  RH  085%=      5-min Rain = 0
KAI1 262351Z 14022KT 23/20 A299 RMK A01 T02260200  RH  085%=      5-min Rain = 0
KAI1 262352Z 15022KT 23/20 A299 RMK A01 T02260199  RH  085%=      5-min Rain = 0
KAI1 262353Z 15020KT 23/20 A299 RMK A01 T02260200  RH  085%=      5-min Rain = 0
KAI1 262354Z 15022KT 23/20 A299 RMK A01 T02260200  RH  085%=      5-min Rain = 0
KAI1 262355Z 15022KT 23/20 A299 RMK A01 T02260199  RH  085%=      5-min Rain = 0
KAI1 262356Z 15021KT 23/20 A299 RMK A01 T02260200  RH  085%=      5-min Rain = 0
KAI1 262357Z 15020KT 23/20 A2991 RMK A01 T02260201  RH  086%=      5-min Rain = 0
KAI1 262358Z 15021KT 23/20 A299 RMK A01 T02260201  RH  086%=      5-min Rain = 0
KAI1 262359Z 15021KT 23/20 A299 RMK A01 T02250200  RH  085%=      5-min Rain = 0
KAI1 270000Z 15023KT 23/20 A299 RMK A01 T02260199  RH  085%=      5-min Rain = 0
KAI1 270001Z 15024KT 23/20 A299 RMK A01 T02250198  RH  085%=      5-min Rain = 0
KAI1 270002Z 15026KT 23/20 A2991 RMK A01 T02260198  RH  084%=      5-min Rain = 0
KAI1 270003Z 15024KT 23/20 A2991 RMK A01 T02250198  RH  085%=      5-min Rain = 0
KAI1 270004Z 15026KT 23/20 A2991 RMK A01 T02250198  RH  085%=      5-min Rain = 0
KAI1 270005Z 15023KT 23/20 A299 RMK A01 T02250199  RH  085%=      5-min Rain = 0
KAI1 270006Z 15022KT 23/20 A2991 RMK A01 T02250200  RH  086%=      5-min Rain = 0
KAI1 270007Z 15020KT 22/20 A2991 RMK A01 T02240199  RH  086%=      5-min Rain = 0
KAI1 270008Z 16021G26KT 22/20 A2991 RMK A01 T02240200  RH  086%=      5-min Rain = 0
KAI1 270009Z 15023KT 22/20 A2991 RMK A01 T02240199  RH  086%=      5-min Rain = 0
KAI1 270010Z 15024KT 22/20 A299 RMK A01 T02240199  RH  085%=      5-min Rain = 0
KAI1 270011Z 15025KT 22/20 A299 RMK A01 T02240199  RH  086%=      5-min Rain = 0
KAI1 270012Z 15022G27KT 22/20 A299 RMK A01 T02240198  RH  085%=      5-min Rain = 0
KAI1 270013Z 15023KT 22/20 A299 RMK A01 T02240198  RH  085%=      5-min Rain = 0
KAI1 270014Z 15024KT 22/20 A299 RMK A01 T02240198  RH  085%=      5-min Rain = 0
KAI1 270015Z 15021KT 22/20 A299 RMK A01 T02240199  RH  086%=      5-min Rain = 0
KAI1 270016Z 15024G29KT 22/20 A299 RMK A01 T02240199  RH  086%=      5-min Rain = 0
KAI1 270017Z 15025KT 22/20 A299 RMK A01 T02240198  RH  085%=      5-min Rain = 0
KAI1 270018Z 15026KT 23/20 A2989 RMK A01 T02250198  RH  085%=      5-min Rain = 0
KAI1 270019Z 15024KT 23/20 A299 RMK A01 T02250199  RH  085%=      5-min Rain = 0
KAI1 270020Z 15024KT 23/20 A299 RMK A01 T02250199  RH  085%=      5-min Rain = 0
KAI1 270021Z 15024KT 23/20 A299 RMK A01 T02250199  RH  086%=      5-min Rain = 0
KAI1 270022Z 16022KT 23/20 A2989 RMK A01 T02250199  RH  085%=      5-min Rain = 0
KAI1 270023Z 15021KT 22/20 A2989 RMK A01 T02240200  RH  086%=      5-min Rain = 0
KAI1 270024Z 15023KT 22/20 A2989 RMK A01 T02240200  RH  086%=      5-min Rain = 0
KAI1 270025Z 15024KT 22/20 A2989 RMK A01 T02240199  RH  086%=      5-min Rain = 0
KAI1 270026Z 15024KT 22/20 A2989 RMK A01 T02240199  RH  086%=      5-min Rain = 0
KAI1 270027Z 15023KT 22/20 A2989 RMK A01 T02230199  RH  086%=      5-min Rain = 0
KAI1 270028Z 15022KT 22/20 A2989 RMK A01 T02230199  RH  086%=      5-min Rain = 0
KAI1 270029Z 15021KT 22/20 A2989 RMK A01 T02230199  RH  086%=      5-min Rain = 0
KAI1 270030Z 15022KT 22/20 A2988 RMK A01 T02230199  RH  087%=      5-min Rain = 0
KAI1 270031Z 15020KT 22/20 A2988 RMK A01 T02230200  RH  087%=      5-min Rain = 0
KAI1 270032Z 15020KT 22/20 A2988 RMK A01 T02230200  RH  087%=      5-min Rain = 0
KAI1 270033Z 15024KT 22/20 A2988 RMK A01 T02220199  RH  087%=      5-min Rain = 0
KAI1 270034Z 15020KT 22/20 A2988 RMK A01 T02220199  RH  087%=      5-min Rain = 0
KAI1 270035Z 15021KT 22/20 A2988 RMK A01 T02220200  RH  087%=      5-min Rain = 0
KAI1 270036Z 15021KT 22/20 A2988 RMK A01 T02220199  RH  087%=      5-min Rain = 0
KAI1 270037Z 15021KT 22/20 A2988 RMK A01 T02220199  RH  087%=      5-min Rain = 0
KAI1 270038Z 15020KT 22/20 A2988 RMK A01 T02210199  RH  087%=      5-min Rain = 0
KAI1 270039Z 15019KT 22/20 A2988 RMK A01 T02210200  RH  087%=      5-min Rain = 0
KAI1 270040Z 15018KT 22/20 A2989 RMK A01 T02210201  RH  088%=      5-min Rain = 0
KAI1 270041Z 15020KT 22/20 A2989 RMK A01 T02210200  RH  088%=      5-min Rain = 0
KAI1 270042Z 15020KT 22/20 A2988 RMK A01 T02210200  RH  088%=      5-min Rain = 0
KAI1 270043Z 15019KT 22/20 A2989 RMK A01 T02200200  RH  088%=      5-min Rain = 0
KAI1 270044Z 16020KT 22/20 A2989 RMK A01 T02210200  RH  088%=      5-min Rain = 0
KAI1 270045Z 16022KT 22/20 A2989 RMK A01 T02200200  RH  088%=      5-min Rain = 0
KAI1 270046Z 15023KT 22/20 A2988 RMK A01 T02200199  RH  088%=      5-min Rain = 0
KAI1 270047Z 15022KT 22/20 A2988 RMK A01 T02200200  RH  088%=      5-min Rain = 0
KAI1 270048Z 15023G29KT 22/20 A2988 RMK A01 T02200199  RH  088%=      5-min Rain = 0
KAI1 270049Z 15022KT 22/20 A2988 RMK A01 T02200199  RH  088%=      5-min Rain = 0
KAI1 270050Z 15021KT 22/20 A2988 RMK A01 T02200200  RH  088%=      5-min Rain = 0
KAI1 270051Z 15021KT 22/20 A2988 RMK A01 T02200200  RH  088%=      5-min Rain = 0
KAI1 270052Z 15020KT 22/20 A2988 RMK A01 T02200200  RH  088%=      5-min Rain = 0
KAI1 270053Z 15020KT 22/20 A2988 RMK A01 T02190200  RH  089%=      5-min Rain = 0
KAI1 270054Z 15022KT 22/20 A2988 RMK A01 T02190200  RH  089%=      5-min Rain = 0
KAI1 270055Z 15020KT 22/20 A2988 RMK A01 T02190199  RH  089%=      5-min Rain = 0
KAI1 270056Z 15020KT 22/20 A2987 RMK A01 T02190200  RH  089%=      5-min Rain = 0
KAI1 270057Z 15022G28KT 22/20 A2987 RMK A01 T02180200  RH  089%=      5-min Rain = 0
KAI1 270058Z 15021G26KT 22/20 A2987 RMK A01 T02180199  RH  089%=      5-min Rain = 0
KAI1 270059Z 15025KT 22/20 A2986 RMK A01 T02180199  RH  089%=      5-min Rain = 0
KAI1 270100Z 15023KT 22/20 A2987 RMK A01 T02180198  RH  088%=      5-min Rain = 0
KAI1 270101Z 15022KT 22/20 A2987 RMK A01 T02180198  RH  089%=      5-min Rain = 0
KAI1 270102Z 15021KT 22/20 A2987 RMK A01 T02180199  RH  089%=      5-min Rain = 0
KAI1 270103Z 15023KT 22/20 A2987 RMK A01 T02180198  RH  088%=      5-min Rain = 0
KAI1 270104Z 15023G28KT 22/20 A2987 RMK A01 T02180198  RH  088%=      5-min Rain = 0
KAI1 270105Z 15021KT 22/20 A2987 RMK A01 T02180198  RH  088%=      5-min Rain = 0
KAI1 270106Z 15021KT 22/20 A2987 RMK A01 T02180197  RH  088%=      5-min Rain = 0
KAI1 270107Z 15023KT 22/20 A2987 RMK A01 T02180197  RH  088%=      5-min Rain = 0
KAI1 270108Z 15020KT 22/20 A2987 RMK A01 T02180197  RH  088%=      5-min Rain = 0
KAI1 270109Z 15021G27KT 22/20 A2988 RMK A01 T02180197  RH  088%=      5-min Rain = 0
KAI1 270110Z 15024KT 22/20 A2987 RMK A01 T02180196  RH  088%=      5-min Rain = 0
KAI1 270111Z 15020KT 22/20 A2988 RMK A01 T02180197  RH  088%=      5-min Rain = 0
KAI1 270112Z 15019KT 22/20 A2988 RMK A01 T02180196  RH  088%=      5-min Rain = 0
KAI1 270113Z 15020G25KT 22/20 A2988 RMK A01 T02170196  RH  088%=      5-min Rain = 0
KAI1 270114Z 16020KT 22/20 A2988 RMK A01 T02170196  RH  087%=      5-min Rain = 0
KAI1 270115Z 16023G28KT 22/20 A2988 RMK A01 T02170195  RH  087%=      5-min Rain = 0
KAI1 270116Z 16024KT 22/20 A2988 RMK A01 T02170195  RH  087%=      5-min Rain = 0
KAI1 270117Z 16021KT 22/19 A2988 RMK A01 T02180194  RH  087%=      5-min Rain = 0
KAI1 270118Z 16022KT 22/20 A2988 RMK A01 T02180195  RH  087%=      5-min Rain = 0
KAI1 270119Z 16021KT 22/20 A2988 RMK A01 T02180195  RH  087%=      5-min Rain = 0
KAI1 270120Z 15022KT 22/19 A2988 RMK A01 T02170194  RH  087%=      5-min Rain = 0
KAI1 270121Z 16022KT 22/19 A2988 RMK A01 T02170194  RH  087%=      5-min Rain = 0
KAI1 270122Z 15023KT 22/19 A2988 RMK A01 T02170194  RH  086%=      5-min Rain = 0
KAI1 270123Z 15021KT 22/19 A2988 RMK A01 T02170194  RH  086%=      5-min Rain = 0
KAI1 270124Z 16020KT 22/19 A2988 RMK A01 T02170194  RH  086%=      5-min Rain = 0
KAI1 270125Z 15022KT 22/19 A2988 RMK A01 T02170194  RH  087%=      5-min Rain = 0
KAI1 270126Z 16019KT 22/19 A2989 RMK A01 T02170193  RH  087%=      5-min Rain = 0
KAI1 270127Z 16022KT 22/19 A2989 RMK A01 T02170194  RH  087%=      5-min Rain = 0
KAI1 270128Z 16021KT 22/19 A2989 RMK A01 T02170194  RH  087%=      5-min Rain = 0
KAI1 270129Z 16020KT 22/19 A2989 RMK A01 T02170194  RH  087%=      5-min Rain = 0
KAI1 270130Z 15022G27KT 22/19 A2988 RMK A01 T02160193  RH  087%=      5-min Rain = 0
KAI1 270131Z 15020KT 22/19 A2988 RMK A01 T02160193  RH  087%=      5-min Rain = 0
KAI1 270132Z 16021G26KT 22/19 A2988 RMK A01 T02160193  RH  087%=      5-min Rain = 0
KAI1 270133Z 15022KT 22/19 A2988 RMK A01 T02150193  RH  087%=      5-min Rain = 0
KAI1 270134Z 16023KT 22/19 A2988 RMK A01 T02160193  RH  087%=      5-min Rain = 0
KAI1 270135Z 15020KT 22/19 A2988 RMK A01 T02160193  RH  087%=      5-min Rain = 0
KAI1 270136Z 15021KT 22/19 A2988 RMK A01 T02150193  RH  087%=      5-min Rain = 0
KAI1 270137Z 15023KT 22/19 A2987 RMK A01 T02150193  RH  087%=      5-min Rain = 0
KAI1 270138Z 15024KT 22/19 A2987 RMK A01 T02150193  RH  087%=      5-min Rain = 0
KAI1 270139Z 15022KT 21/19 A2987 RMK A01 T02140192  RH  087%=      5-min Rain = 0
KAI1 270140Z 15019KT 21/19 A2987 RMK A01 T02140192  RH  087%=      5-min Rain = 0
KAI1 270141Z 15020G25KT 22/19 A2988 RMK A01 T02150193  RH  087%=      5-min Rain = 0
KAI1 270142Z 15021KT 22/19 A2988 RMK A01 T02150193  RH  088%=      5-min Rain = 0
KAI1 270143Z 15021KT 21/19 A2988 RMK A01 T02140193  RH  088%=      5-min Rain = 0
KAI1 270144Z 15020KT 21/19 A2988 RMK A01 T02140192  RH  087%=      5-min Rain = 0
KAI1 270145Z 15019KT 21/19 A2988 RMK A01 T02140192  RH  087%=      5-min Rain = 0
KAI1 270146Z 15017KT 21/19 A2988 RMK A01 T02140193  RH  088%=      5-min Rain = 0
KAI1 270147Z 15019KT 21/19 A2988 RMK A01 T02130193  RH  088%=      5-min Rain = 0
KAI1 270148Z 15017KT 21/19 A2988 RMK A01 T02130192  RH  088%=      5-min Rain = 0
KAI1 270149Z 15016KT 21/19 A2988 RMK A01 T02130193  RH  088%=      5-min Rain = 0
KAI1 270150Z 15017KT 21/19 A2988 RMK A01 T02130192  RH  088%=      5-min Rain = 0
KAI1 270151Z 15018KT 21/19 A2988 RMK A01 T02130192  RH  088%=      5-min Rain = 0
KAI1 270152Z 15020KT 21/19 A2988 RMK A01 T02130192  RH  088%=      5-min Rain = 0
KAI1 270153Z 15017KT 21/19 A2988 RMK A01 T02130192  RH  088%=      5-min Rain = 0
KAI1 270154Z 15017KT 21/19 A2988 RMK A01 T02130192  RH  088%=      5-min Rain = 0
KAI1 270155Z 15016KT 21/19 A2988 RMK A01 T02130192  RH  088%=      5-min Rain = 0
KAI1 270156Z 15018KT 21/19 A2988 RMK A01 T02120192  RH  088%=      5-min Rain = 0
KAI1 270157Z 15019KT 21/19 A2988 RMK A01 T02120191  RH  088%=      5-min Rain = 0
KAI1 270158Z 15019KT 21/19 A2988 RMK A01 T02120191  RH  088%=      5-min Rain = 0
KAI1 270159Z 15019KT 21/19 A2988 RMK A01 T02120191  RH  088%=      5-min Rain = 0
KAI1 270200Z 15017KT 21/19 A2988 RMK A01 T02120191  RH  088%=      5-min Rain = 0
KAI1 270201Z 15018KT 21/19 A2988 RMK A01 T02120191  RH  088%=      5-min Rain = 0
KAI1 270202Z 15018KT 21/19 A2989 RMK A01 T02120191  RH  088%=      5-min Rain = 0
KAI1 270203Z 16015KT 21/19 A2989 RMK A01 T02120191  RH  088%=      5-min Rain = 0
KAI1 270204Z 15015KT 21/19 A2989 RMK A01 T02120191  RH  088%=      5-min Rain = 0
KAI1 270205Z 15015KT 21/19 A299 RMK A01 T02120191  RH  088%=      5-min Rain = 0
KAI1 270206Z 15017KT 21/19 A299 RMK A01 T02110191  RH  088%=      5-min Rain = 0
KAI1 270207Z 15016KT 21/19 A299 RMK A01 T02110191  RH  088%=      5-min Rain = 0
KAI1 270208Z 15017KT 21/19 A299 RMK A01 T02110191  RH  088%=      5-min Rain = 0
KAI1 270209Z 15017KT 21/19 A299 RMK A01 T02110191  RH  088%=      5-min Rain = 0
KAI1 270210Z 15017KT 21/19 A299 RMK A01 T02120191  RH  088%=      5-min Rain = 0
KAI1 270211Z 16017KT 21/19 A299 RMK A01 T02110190  RH  088%=      5-min Rain = 0
KAI1 270212Z 15017KT 21/19 A299 RMK A01 T02120191  RH  088%=      5-min Rain = 0
KAI1 270213Z 15015KT 21/19 A299 RMK A01 T02110190  RH  088%=      5-min Rain = 0
KAI1 270214Z 15016KT 21/19 A299 RMK A01 T02110190  RH  088%=      5-min Rain = 0
KAI1 270215Z 15015KT 21/19 A299 RMK A01 T02110191  RH  088%=      5-min Rain = 0
KAI1 270216Z 15017KT 21/19 A299 RMK A01 T02110191  RH  088%=      5-min Rain = 0
KAI1 270217Z 15018KT 21/19 A299 RMK A01 T02110190  RH  088%=      5-min Rain = 0
KAI1 270218Z 15017KT 21/19 A299 RMK A01 T02110190  RH  088%=      5-min Rain = 0
KAI1 270219Z 16017KT 21/19 A2991 RMK A01 T02110190  RH  088%=      5-min Rain = 0
KAI1 270220Z 16017KT 21/19 A2991 RMK A01 T02110190  RH  088%=      5-min Rain = 0
KAI1 270221Z 16015KT 21/19 A2991 RMK A01 T02110190  RH  088%=      5-min Rain = 0
KAI1 270222Z 16015KT 21/19 A2992 RMK A01 T02110190  RH  088%=      5-min Rain = 0
KAI1 270223Z 16015KT 21/19 A2992 RMK A01 T02110190  RH  088%=      5-min Rain = 0
KAI1 270224Z 16014KT 21/19 A2992 RMK A01 T02100190  RH  088%=      5-min Rain = 0
KAI1 270225Z 16015KT 21/19 A2992 RMK A01 T02100190  RH  088%=      5-min Rain = 0
KAI1 270226Z 16014KT 21/19 A2992 RMK A01 T02100190  RH  088%=      5-min Rain = 0
KAI1 270227Z 15016KT 21/19 A2992 RMK A01 T02100190  RH  088%=      5-min Rain = 0
KAI1 270228Z 16015KT 21/19 A2992 RMK A01 T02100190  RH  088%=      5-min Rain = 0
KAI1 270229Z 15014KT 21/19 A2992 RMK A01 T02100190  RH  088%=      5-min Rain = 0
KAI1 270230Z 15014KT 21/19 A2991 RMK A01 T02090190  RH  088%=      5-min Rain = 0
KAI1 270231Z 15014KT 21/19 A2991 RMK A01 T02090190  RH  089%=      5-min Rain = 0
KAI1 270232Z 15013KT 21/19 A2991 RMK A01 T02090189  RH  089%=      5-min Rain = 0
KAI1 270233Z 15013KT 21/19 A2991 RMK A01 T02080189  RH  089%=      5-min Rain = 0
KAI1 270234Z 15014KT 21/19 A2991 RMK A01 T02080189  RH  089%=      5-min Rain = 0
KAI1 270235Z 15014KT 21/19 A2991 RMK A01 T02080189  RH  089%=      5-min Rain = 0
KAI1 270236Z 15014KT 21/19 A2991 RMK A01 T02080189  RH  089%=      5-min Rain = 0
KAI1 270237Z 15015KT 21/19 A2991 RMK A01 T02080189  RH  089%=      5-min Rain = 0
KAI1 270238Z 15015KT 21/19 A2991 RMK A01 T02080188  RH  088%=      5-min Rain = 0
KAI1 270239Z 15013KT 21/19 A2991 RMK A01 T02090189  RH  088%=      5-min Rain = 0
KAI1 270240Z 15012KT 21/19 A2991 RMK A01 T02080189  RH  088%=      5-min Rain = 0
KAI1 270241Z 15013KT 21/19 A2991 RMK A01 T02080189  RH  089%=      5-min Rain = 0
KAI1 270242Z 15013KT 21/19 A2991 RMK A01 T02080189  RH  089%=      5-min Rain = 0
KAI1 270243Z 15012KT 21/19 A2991 RMK A01 T02080189  RH  089%=      5-min Rain = 0
KAI1 270244Z 15012KT 21/19 A2991 RMK A01 T02080188  RH  089%=      5-min Rain = 0
KAI1 270245Z 15013KT 21/19 A2991 RMK A01 T02080189  RH  089%=      5-min Rain = 0
KAI1 270246Z 15012KT 21/19 A2991 RMK A01 T02070188  RH  089%=      5-min Rain = 0
KAI1 270247Z 15013KT 21/19 A2992 RMK A01 T02070188  RH  089%=      5-min Rain = 0
KAI1 270248Z 15013KT 21/19 A2992 RMK A01 T02070188  RH  089%=      5-min Rain = 0
KAI1 270249Z 16012KT 21/19 A2992 RMK A01 T02070188  RH  089%=      5-min Rain = 0
KAI1 270250Z 15012KT 21/19 A2992 RMK A01 T02070188  RH  089%=      5-min Rain = 0
KAI1 270251Z 15012KT 21/19 A2992 RMK A01 T02060188  RH  089%=      5-min Rain = 0
KAI1 270252Z 15013KT 21/19 A2992 RMK A01 T02060188  RH  089%=      5-min Rain = 0
KAI1 270253Z 15013KT 21/19 A2992 RMK A01 T02060188  RH  089%=      5-min Rain = 0
KAI1 270254Z 15013KT 21/19 A2992 RMK A01 T02060188  RH  089%=      5-min Rain = 0
KAI1 270255Z 15013KT 21/19 A2992 RMK A01 T02060188  RH  089%=      5-min Rain = 0
KAI1 270256Z 15012KT 21/19 A2992 RMK A01 T02060188  RH  089%=      5-min Rain = 0
KAI1 270257Z 15012KT 21/19 A2992 RMK A01 T02060188  RH  089%=      5-min Rain = 0
KAI1 270258Z 15013KT 21/19 A2992 RMK A01 T02050187  RH  089%=      5-min Rain = 0
KAI1 270259Z 15012KT 21/19 A2992 RMK A01 T02050187  RH  089%=      5-min Rain = 0
KAI1 270300Z 15013KT 21/19 A2991 RMK A01 T02050187  RH  089%=      5-min Rain = 0
KAI1 270301Z 14012KT 21/19 A2991 RMK A01 T02050187  RH  089%=      5-min Rain = 0
KAI1 270302Z 14013KT 21/19 A2991 RMK A01 T02050187  RH  089%=      5-min Rain = 0
KAI1 270303Z 15014KT 21/19 A2991 RMK A01 T02050187  RH  089%=      5-min Rain = 0
KAI1 270304Z 15013KT 21/19 A2991 RMK A01 T02050187  RH  089%=      5-min Rain = 0
KAI1 270305Z 15013KT 21/19 A2991 RMK A01 T02060187  RH  089%=      5-min Rain = 0
KAI1 270306Z 14013KT 21/19 A2991 RMK A01 T02050187  RH  089%=      5-min Rain = 0
KAI1 270307Z 15013KT 21/19 A299 RMK A01 T02050187  RH  089%=      5-min Rain = 0
KAI1 270308Z 15013KT 21/19 A299 RMK A01 T02050187  RH  089%=      5-min Rain = 0
KAI1 270309Z 15014KT 20/19 A299 RMK A01 T02040186  RH  089%=      5-min Rain = 0
KAI1 270310Z 15013KT 21/19 A299 RMK A01 T02050187  RH  089%=      5-min Rain = 0
KAI1 270311Z 15013KT 21/19 A299 RMK A01 T02050187  RH  089%=      5-min Rain = 0
KAI1 270312Z 15014KT 20/19 A299 RMK A01 T02040187  RH  089%=      5-min Rain = 0
KAI1 270313Z 15013KT 20/19 A299 RMK A01 T02040187  RH  089%=      5-min Rain = 0
KAI1 270314Z 15014KT 20/19 A299 RMK A01 T02040186  RH  089%=      5-min Rain = 0
KAI1 270315Z 16013KT 20/19 A299 RMK A01 T02040186  RH  090%=      5-min Rain = 0
KAI1 270316Z 15014KT 20/19 A2991 RMK A01 T02040187  RH  090%=      5-min Rain = 0
KAI1 270317Z 15014KT 20/19 A299 RMK A01 T02040186  RH  090%=      5-min Rain = 0
KAI1 270318Z 15015KT 20/19 A299 RMK A01 T02040186  RH  089%=      5-min Rain = 0
KAI1 270319Z 15014KT 20/19 A299 RMK A01 T02040186  RH  089%=      5-min Rain = 0
KAI1 270320Z 15014KT 20/19 A299 RMK A01 T02040186  RH  089%=      5-min Rain = 0
KAI1 270321Z 15014KT 20/19 A299 RMK A01 T02040186  RH  089%=      5-min Rain = 0
KAI1 270322Z 15015KT 20/19 A299 RMK A01 T02040186  RH  089%=      5-min Rain = 0
KAI1 270323Z 15014KT 20/19 A299 RMK A01 T02040186  RH  089%=      5-min Rain = 0
KAI1 270324Z 15016KT 20/19 A299 RMK A01 T02040186  RH  089%=      5-min Rain = 0
KAI1 270325Z 15015KT 20/19 A299 RMK A01 T02040186  RH  089%=      5-min Rain = 0
KAI1 270326Z 15015KT 20/19 A299 RMK A01 T02040186  RH  089%=      5-min Rain = 0
KAI1 270327Z 15014KT 20/19 A2991 RMK A01 T02040185  RH  089%=      5-min Rain = 0
KAI1 270328Z 15015KT 20/19 A2991 RMK A01 T02040186  RH  089%=      5-min Rain = 0
KAI1 270329Z 15016KT 20/19 A2991 RMK A01 T02040185  RH  089%=      5-min Rain = 0
KAI1 270330Z 15015KT 21/19 A2991 RMK A01 T02050185  RH  089%=      5-min Rain = 0
KAI1 270331Z 15016KT 21/19 A2991 RMK A01 T02050185  RH  088%=      5-min Rain = 0
KAI1 270332Z 15014KT 21/19 A2991 RMK A01 T02050185  RH  088%=      5-min Rain = 0
KAI1 270333Z 15015KT 21/19 A2991 RMK A01 T02050185  RH  088%=      5-min Rain = 0
KAI1 270334Z 15015KT 21/19 A2991 RMK A01 T02050185  RH  088%=      5-min Rain = 0
KAI1 270335Z 15014KT 21/19 A2991 RMK A01 T02050185  RH  088%=      5-min Rain = 0
KAI1 270336Z 15014KT 21/19 A2991 RMK A01 T02050185  RH  089%=      5-min Rain = 0
KAI1 270337Z 15015KT 21/19 A2991 RMK A01 T02050185  RH  089%=      5-min Rain = 0
KAI1 270338Z 15014KT 21/19 A2991 RMK A01 T02050185  RH  089%=      5-min Rain = 0
KAI1 270339Z 15013KT 20/19 A2991 RMK A01 T02040185  RH  089%=      5-min Rain = 0
KAI1 270340Z 15013KT 20/19 A2991 RMK A01 T02040185  RH  089%=      5-min Rain = 0
KAI1 270341Z 15014KT 20/19 A2991 RMK A01 T02040185  RH  089%=      5-min Rain = 0
KAI1 270342Z 15014KT 20/19 A2991 RMK A01 T02040185  RH  089%=      5-min Rain = 0
KAI1 270343Z 15013KT 20/18 A2991 RMK A01 T02030184  RH  089%=      5-min Rain = 0
KAI1 270344Z 15014KT 20/18 A299 RMK A01 T02030184  RH  089%=      5-min Rain = 0
KAI1 270345Z 15015KT 20/18 A299 RMK A01 T02030184  RH  089%=      5-min Rain = 0
KAI1 270346Z 15016KT 20/18 A299 RMK A01 T02030184  RH  089%=      5-min Rain = 0
KAI1 270347Z 15016KT 20/18 A299 RMK A01 T02030184  RH  089%=      5-min Rain = 0
KAI1 270348Z 15014KT 20/18 A299 RMK A01 T02030184  RH  089%=      5-min Rain = 0
KAI1 270349Z 15014KT 20/18 A299 RMK A01 T02030184  RH  089%=      5-min Rain = 0
KAI1 270350Z 15016KT 20/18 A299 RMK A01 T02030184  RH  089%=      5-min Rain = 0
KAI1 270351Z 15015KT 20/18 A299 RMK A01 T02030184  RH  089%=      5-min Rain = 0
KAI1 270352Z 15015KT 20/18 A299 RMK A01 T02020183  RH  089%=      5-min Rain = 0
KAI1 270353Z 15015KT 20/18 A299 RMK A01 T02020183  RH  089%=      5-min Rain = 0
KAI1 270354Z 15016KT 20/18 A299 RMK A01 T02020183  RH  089%=      5-min Rain = 0
KAI1 270355Z 15016KT 20/18 A299 RMK A01 T02010183  RH  089%=      5-min Rain = 0
KAI1 270356Z 15016KT 20/18 A2989 RMK A01 T02010183  RH  089%=      5-min Rain = 0
KAI1 270357Z 15016KT 20/18 A2989 RMK A01 T02010183  RH  089%=      5-min Rain = 0
KAI1 270358Z 15015KT 20/18 A2989 RMK A01 T02010183  RH  089%=      5-min Rain = 0
KAI1 270359Z 15015KT 20/18 A2989 RMK A01 T02010183  RH  089%=      5-min Rain = 0
KAI1 270400Z 15015KT 20/18 A299 RMK A01 T02010183  RH  089%=      5-min Rain = 0
KAI1 270401Z 15015KT 20/18 A299 RMK A01 T02010183  RH  089%=      5-min Rain = 0
KAI1 270402Z 16015KT 20/18 A299 RMK A01 T02000183  RH  090%=      5-min Rain = 0
KAI1 270403Z 16015KT 20/18 A299 RMK A01 T02010183  RH  090%=      5-min Rain = 0
KAI1 270404Z 16015KT 20/18 A299 RMK A01 T02000182  RH  090%=      5-min Rain = 0
KAI1 270405Z 15015KT 20/18 A299 RMK A01 T02000182  RH  090%=      5-min Rain = 0
KAI1 270406Z 15016KT 20/18 A299 RMK A01 T02000182  RH  090%=      5-min Rain = 0
KAI1 270407Z 15015KT 20/18 A299 RMK A01 T02000182  RH  089%=      5-min Rain = 0
KAI1 270408Z 15014KT 20/18 A299 RMK A01 T02000182  RH  090%=      5-min Rain = 0
KAI1 270409Z 15013KT 20/18 A299 RMK A01 T02000182  RH  090%=      5-min Rain = 0
KAI1 270410Z 15012KT 20/18 A299 RMK A01 T02000183  RH  090%=      5-min Rain = 0
KAI1 270411Z 15013KT 20/18 A299 RMK A01 T01990182  RH  090%=      5-min Rain = 0
KAI1 270412Z 15012KT 20/18 A299 RMK A01 T01990182  RH  090%=      5-min Rain = 0
KAI1 270413Z 15012KT 20/18 A299 RMK A01 T01990182  RH  090%=      5-min Rain = 0
KAI1 270414Z 15013KT 20/18 A299 RMK A01 T01990182  RH  090%=      5-min Rain = 0
KAI1 270415Z 15013KT 20/18 A299 RMK A01 T01990182  RH  090%=      5-min Rain = 0
KAI1 270416Z 15014KT 20/18 A299 RMK A01 T01990182  RH  090%=      5-min Rain = 0
KAI1 270417Z 15014KT 20/18 A299 RMK A01 T01990182  RH  090%=      5-min Rain = 0
KAI1 270418Z 15014KT 20/18 A299 RMK A01 T01990182  RH  090%=      5-min Rain = 0
KAI1 270419Z 15013KT 20/18 A299 RMK A01 T01990182  RH  090%=      5-min Rain = 0
KAI1 270420Z 15014KT 20/18 A299 RMK A01 T01990182  RH  090%=      5-min Rain = 0
KAI1 270421Z 15014KT 20/18 A299 RMK A01 T01990182  RH  090%=      5-min Rain = 0
KAI1 270422Z 15013KT 20/18 A299 RMK A01 T01990182  RH  090%=      5-min Rain = 0
KAI1 270423Z 15012KT 20/18 A299 RMK A01 T01990182  RH  090%=      5-min Rain = 0
KAI1 270424Z 15013KT 20/18 A299 RMK A01 T01990182  RH  090%=      5-min Rain = 0
KAI1 270425Z 15013KT 20/18 A299 RMK A01 T01980182  RH  090%=      5-min Rain = 0
KAI1 270426Z 15013KT 20/18 A299 RMK A01 T01980182  RH  090%=      5-min Rain = 0
KAI1 270427Z 16013KT 20/18 A299 RMK A01 T01980181  RH  090%=      5-min Rain = 0
KAI1 270428Z 15013KT 20/18 A299 RMK A01 T01970181  RH  090%=      5-min Rain = 0
KAI1 270429Z 15014KT 20/18 A299 RMK A01 T01970181  RH  091%=      5-min Rain = 0
KAI1 270430Z 16013KT 20/18 A299 RMK A01 T01970181  RH  091%=      5-min Rain = 0
KAI1 270431Z 16013KT 20/18 A299 RMK A01 T01970181  RH  091%=      5-min Rain = 0
KAI1 270432Z 16012KT 20/18 A299 RMK A01 T01970181  RH  091%=      5-min Rain = 0
KAI1 270433Z 16012KT 20/18 A299 RMK A01 T01970181  RH  091%=      5-min Rain = 0
KAI1 270434Z 15013KT 20/18 A299 RMK A01 T01970181  RH  091%=      5-min Rain = 0
KAI1 270435Z 15014KT 20/18 A299 RMK A01 T01970181  RH  091%=      5-min Rain = 0
KAI1 270436Z 15013KT 20/18 A299 RMK A01 T01970181  RH  091%=      5-min Rain = 0
KAI1 270437Z 15012KT 20/18 A299 RMK A01 T01970181  RH  091%=      5-min Rain = 0
KAI1 270438Z 15013KT 20/18 A299 RMK A01 T01960181  RH  091%=      5-min Rain = 0
KAI1 270439Z 15012KT 20/18 A299 RMK A01 T01960181  RH  091%=      5-min Rain = 0
KAI1 270440Z 15012KT 20/18 A299 RMK A01 T01960181  RH  091%=      5-min Rain = 0
KAI1 270441Z 15011KT 20/18 A299 RMK A01 T01960181  RH  091%=      5-min Rain = 0
KAI1 270442Z 16013KT 20/18 A299 RMK A01 T01960180  RH  091%=      5-min Rain = 0
KAI1 270443Z 15011KT 20/18 A299 RMK A01 T01960180  RH  091%=      5-min Rain = 0
KAI1 270444Z 16012KT 20/18 A299 RMK A01 T01960180  RH  091%=      5-min Rain = 0
KAI1 270445Z 15010KT 20/18 A299 RMK A01 T01960180  RH  091%=      5-min Rain = 0
KAI1 270446Z 16010KT 20/18 A299 RMK A01 T01960180  RH  091%=      5-min Rain = 0
KAI1 270447Z 16011KT 20/18 A299 RMK A01 T01950180  RH  091%=      5-min Rain = 0
KAI1 270448Z 15011KT 20/18 A299 RMK A01 T01950180  RH  091%=      5-min Rain = 0
KAI1 270449Z 16010KT 20/18 A299 RMK A01 T01950180  RH  091%=      5-min Rain = 0
KAI1 270450Z 16011KT 20/18 A299 RMK A01 T01950180  RH  091%=      5-min Rain = 0
KAI1 270451Z 16011KT 20/18 A299 RMK A01 T01950180  RH  091%=      5-min Rain = 0
KAI1 270452Z 16011KT 20/18 A299 RMK A01 T01950180  RH  091%=      5-min Rain = 0
KAI1 270453Z 16010KT 20/18 A299 RMK A01 T01950179  RH  091%=      5-min Rain = 0
KAI1 270454Z 16010KT 20/18 A299 RMK A01 T01960180  RH  091%=      5-min Rain = 0
KAI1 270455Z 16010KT 20/18 A299 RMK A01 T01950180  RH  091%=      5-min Rain = 0
KAI1 270456Z 16010KT 20/18 A299 RMK A01 T01950179  RH  091%=      5-min Rain = 0
KAI1 270457Z 16010KT 20/18 A299 RMK A01 T01950179  RH  091%=      5-min Rain = 0
KAI1 270458Z 16010KT 20/18 A299 RMK A01 T01950179  RH  091%=      5-min Rain = 0
KAI1 270459Z 16010KT 20/18 A299 RMK A01 T01950179  RH  091%=      5-min Rain = 0

Page generated in 0.121 seconds.